GFSNGP_250_spd_036.txt.gz
Wind_Speed
18 21 25 29 33 35 36 39 39 40 41 44 48 50 51 53 56 58 57 58 59 60 61 64 69 75 82 89 94 99 104 112 117 122 127 130 128 124 121 117 114 104 100 95
22 26 30 33 36 39 39 43 44 45 47 49 52 54 57 58 59 60 57 58 58 60 64 70 75 82 88 94 100 106 110 115 121 126 130 127 124 121 115 107 102 97 91 86
25 26 29 33 38 40 43 48 50 53 55 57 59 61 61 61 61 58 57 59 62 66 71 76 82 88 94 98 103 109 116 123 128 131 129 121 118 115 107 100 96 92 86 82
26 30 34 38 44 45 51 56 59 61 60 59 61 62 63 63 61 60 61 63 66 72 78 85 91 95 99 105 111 118 123 129 132 132 127 124 118 110 102 94 87 82 78 76
31 36 40 43 47 50 55 61 59 59 60 60 61 62 62 62 61 62 64 68 75 81 87 92 97 101 105 112 118 125 129 132 133 129 124 121 111 102 95 90 83 77 74 71
39 42 44 48 53 55 59 61 62 64 64 63 64 64 65 64 65 67 71 77 83 89 95 100 105 110 114 118 123 128 130 132 129 124 120 110 100 93 88 82 77 74 71 68
47 49 52 55 58 62 61 62 67 66 65 66 67 68 68 69 72 75 80 86 92 97 102 106 110 114 119 123 127 127 129 129 129 124 113 100 93 87 82 77 74 70 66 63
52 56 56 61 64 63 63 67 70 69 68 68 70 69 70 73 77 81 87 93 99 104 107 111 117 121 125 125 126 127 128 129 125 116 103 96 89 82 77 73 70 66 63 60
59 62 64 64 64 67 69 72 72 71 71 72 74 73 74 78 83 88 94 100 104 107 112 119 124 126 124 126 125 128 128 122 114 104 96 90 84 77 73 70 66 63 60 58
65 65 66 67 71 75 74 73 73 73 74 74 76 77 80 85 90 96 102 106 109 112 120 123 124 123 125 127 130 128 122 115 104 96 90 84 78 73 70 66 63 60 58 57
65 69 69 74 78 77 75 75 75 75 75 78 80 82 87 91 96 102 106 110 115 120 125 126 126 125 128 129 125 120 112 102 96 90 84 79 74 70 65 63 60 57 55 53
70 74 76 78 79 76 74 75 76 77 80 83 84 88 94 98 104 107 110 116 120 125 127 125 126 128 124 122 118 110 101 94 89 84 79 74 70 66 63 60 58 56 53 49
76 79 83 84 79 77 77 77 80 82 85 88 92 97 101 104 109 112 116 123 128 128 126 125 127 123 120 113 105 98 92 87 83 78 73 70 66 63 59 57 56 54 49 46
80 84 83 79 77 79 80 82 84 86 90 94 98 101 105 109 113 116 121 128 128 127 126 124 121 118 109 100 95 90 85 82 77 73 69 67 63 60 58 56 53 50 48 47
84 84 80 79 81 83 84 87 90 93 97 100 103 107 112 114 118 119 126 128 128 126 121 119 114 105 97 93 89 85 81 77 73 69 66 63 59 57 56 54 53 51 49 48
85 82 82 84 85 87 90 94 96 100 103 106 110 115 118 120 123 125 130 127 127 122 116 109 101 94 89 87 84 80 77 72 69 66 63 60 57 55 54 52 52 51 48 46
81 83 85 87 90 92 95 98 102 106 109 112 117 119 119 124 125 130 124 125 120 113 105 98 92 88 86 83 79 75 71 68 65 62 60 56 55 54 53 52 49 46 44 42
86 88 90 94 97 100 104 106 109 113 117 118 119 121 123 125 126 121 122 113 107 102 96 91 86 85 82 78 74 70 67 65 62 59 56 55 53 52 52 48 45 42 41 40
91 95 99 102 106 109 112 116 117 119 121 123 123 124 127 120 119 115 107 103 96 91 90 86 83 81 77 72 70 66 64 61 59 56 54 53 52 52 48 45 43 42 40 38
99 102 106 109 112 116 119 120 123 123 123 125 123 117 117 114 106 102 98 93 88 85 85 81 77 74 70 68 66 62 59 58 56 54 53 52 52 49 45 44 42 41 40 39
108 111 113 117 122 124 125 125 126 126 125 117 112 113 108 103 99 95 88 87 85 83 80 75 73 70 67 65 62 59 56 55 53 53 52 52 50 46 44 41 42 42 42 40
117 120 122 123 125 126 126 124 121 116 115 112 111 105 98 96 92 88 87 81 80 79 76 72 70 67 64 61 58 56 55 53 52 51 51 51 48 45 42 42 41 42 41 41
123 123 124 124 124 122 117 114 111 110 108 104 101 97 93 89 87 82 81 82 78 76 74 69 65 63 60 59 55 53 53 52 51 50 50 49 46 44 42 42 40 40 40 40
123 122 120 116 115 115 111 110 104 102 98 96 96 92 86 82 84 80 77 75 74 72 69 65 63 60 58 57 54 52 51 51 50 50 49 47 45 44 43 41 40 40 40 40
115 115 118 117 113 106 100 100 98 96 94 92 89 85 82 79 76 75 74 73 71 68 65 63 60 57 56 56 53 51 51 51 50 49 47 45 43 42 42 42 41 40 40 40
112 109 106 104 103 99 96 94 92 90 86 83 84 81 79 78 76 73 72 69 68 66 63 61 59 56 55 53 52 51 50 50 50 49 47 44 42 42 42 42 41 40 39 38
106 103 101 98 98 93 88 88 85 83 81 79 79 78 77 75 73 71 68 66 65 64 62 60 58 55 53 52 51 51 49 48 48 46 45 42 41 41 42 41 40 40 39 37

GFSNGP_250_spd_039.txt.gz
Wind_Speed
20 21 22 24 26 27 28 30 33 38 43 47 50 53 54 53 55 56 58 59 59 58 58 59 62 67 72 78 86 93 98 103 106 112 120 125 126 124 119 117 113 111 107 100
22 22 24 26 27 28 32 35 38 41 47 51 54 56 57 58 58 58 58 60 60 60 61 64 68 74 80 87 93 100 104 107 112 122 125 127 123 122 120 114 111 107 100 93
25 24 26 29 30 33 38 43 45 47 52 56 56 60 61 61 60 59 61 61 62 64 67 71 76 81 88 94 101 105 111 115 119 125 125 126 125 123 116 112 105 98 92 87
28 25 25 31 37 40 45 50 52 54 58 59 59 62 66 64 62 62 63 65 66 70 74 78 83 89 95 102 105 110 116 124 127 125 126 127 123 120 114 108 99 92 85 80
27 29 30 38 43 46 49 54 57 61 62 63 65 69 69 67 64 64 67 69 73 76 79 84 90 96 103 107 110 116 125 127 128 127 126 123 120 117 107 99 92 85 81 75
31 33 36 43 47 51 55 58 63 64 65 69 74 72 72 70 68 68 71 75 79 81 86 91 97 102 107 112 117 122 128 128 127 126 124 123 118 110 100 93 86 80 75 70
37 38 41 50 52 54 59 63 63 66 70 74 77 75 72 69 70 74 78 81 83 87 93 98 101 106 111 116 121 125 131 128 128 127 123 118 109 100 93 86 80 75 71 67
40 43 48 55 56 59 64 64 67 69 75 78 82 78 75 76 77 81 83 85 89 94 100 104 108 113 118 124 125 130 129 129 128 123 117 110 101 93 86 80 75 71 67 63
46 49 55 58 62 64 66 67 69 74 78 82 82 78 77 77 80 83 86 90 96 100 106 110 116 121 122 125 130 129 129 129 124 118 110 101 94 87 81 75 70 67 64 60
52 58 63 64 67 68 69 71 74 77 82 84 79 77 78 81 84 88 92 97 102 106 111 115 121 125 126 130 129 128 128 122 117 109 102 94 87 80 75 70 67 64 62 58
59 64 66 69 70 71 73 76 79 79 83 79 79 81 83 86 89 94 99 103 108 111 115 121 123 127 129 129 126 127 121 116 110 103 94 87 81 75 70 66 63 61 59 56
64 69 71 73 76 77 77 79 80 84 84 80 82 85 88 92 97 102 107 110 114 119 122 123 127 129 124 124 123 118 114 109 102 94 87 80 75 70 67 63 61 59 57 55
71 74 76 77 77 77 80 81 86 84 82 84 87 89 94 100 104 108 112 117 120 123 125 127 126 121 121 122 117 113 106 99 94 87 81 75 70 67 63 60 58 57 54 54
75 74 78 78 79 82 84 88 87 85 86 89 92 95 101 106 110 115 119 123 127 127 125 121 122 120 121 116 111 105 98 93 86 81 75 71 68 64 60 57 54 52 53 52
78 79 79 82 84 84 89 90 87 90 92 95 99 104 108 113 117 122 127 127 127 121 120 122 119 118 113 108 102 96 91 85 80 75 72 69 65 60 57 55 52 51 50 47
80 81 84 85 88 90 89 90 92 94 98 102 106 110 115 120 124 128 127 124 121 124 122 118 116 110 105 100 95 90 85 80 75 72 69 65 61 57 54 52 52 51 47 44
82 83 86 90 90 91 92 95 97 100 104 108 113 119 123 127 129 126 123 123 124 120 117 111 107 102 97 93 89 85 80 76 71 68 65 62 58 54 52 51 51 48 45 43
86 88 89 90 92 94 97 101 105 109 112 117 122 126 130 130 126 125 124 126 124 113 109 106 101 96 91 87 84 80 75 72 69 65 63 59 55 53 50 49 48 45 43 41
88 90 91 94 97 101 104 109 113 117 121 125 129 130 127 126 126 125 126 120 109 102 100 98 93 89 85 83 79 75 70 68 66 63 60 56 53 51 50 48 46 43 41 41
90 94 98 102 105 109 113 116 121 125 129 131 129 124 122 124 123 116 105 101 100 94 91 88 86 83 80 77 74 70 67 64 62 60 58 54 51 50 49 48 45 42 40 40
99 103 106 110 114 118 122 125 128 130 129 124 122 121 121 118 107 102 98 93 92 89 86 85 81 77 75 72 68 65 63 61 59 57 56 53 51 49 49 48 45 42 40 38
108 112 115 118 121 124 127 128 128 122 122 121 119 115 105 102 99 96 95 89 87 85 81 79 76 73 70 68 66 63 60 58 56 55 54 53 52 50 48 47 44 42 40 38
117 120 123 126 126 128 124 119 118 118 119 115 105 100 96 94 94 90 85 87 83 80 77 75 73 71 68 67 64 61 59 57 56 54 53 52 51 49 48 46 44 41 40 39
126 126 123 120 115 114 114 118 116 110 101 97 97 95 90 88 87 86 80 77 75 75 74 72 71 69 67 64 63 60 58 57 56 54 53 52 50 49 47 45 42 40 40 39
110 111 112 112 112 116 111 102 98 100 95 92 91 89 85 83 79 78 77 75 73 73 72 70 68 66 64 62 61 59 58 57 56 54 53 51 50 48 45 43 42 41 40 38
114 114 113 113 109 102 100 97 93 93 92 89 86 83 79 77 75 73 72 71 72 71 70 68 65 63 62 61 59 58 57 56 55 53 50 49 48 47 44 43 41 41 40 39
110 107 103 101 101 98 96 93 89 86 85 80 76 77 74 73 71 70 70 70 69 69 67 65 62 61 59 58 57 55 54 53 52 50 49 47 45 44 43 42 41 40 39 39

GFSNGP_250_spd_042.txt.gz
Wind_Speed
13 16 18 21 24 26 28 27 29 34 36 42 43 46 50 49 52 57 63 62 59 57 55 55 56 59 64 70 75 81 88 93 99 105 110 114 118 123 127 126 125 121 118 110
18 20 21 24 27 28 31 30 34 38 43 46 50 55 56 56 57 63 66 64 63 58 57 58 62 67 72 78 84 90 94 100 105 110 114 118 124 127 125 123 123 118 111 103
24 23 24 29 30 29 31 34 38 42 45 50 56 59 60 59 64 68 71 70 66 61 61 64 69 75 81 86 91 96 101 107 111 114 118 124 126 122 123 122 118 111 104 97
29 28 26 33 35 33 34 40 43 46 50 53 58 61 63 64 67 73 74 70 66 65 68 72 76 82 87 93 98 103 109 112 115 118 123 123 121 122 121 118 111 104 98 92
31 32 30 37 36 37 41 44 49 51 54 59 64 66 68 68 71 75 75 72 71 73 76 79 83 89 95 100 104 110 114 117 120 124 122 121 120 121 117 112 104 98 92 88
36 34 31 35 41 43 44 46 53 57 60 63 67 68 72 74 76 77 80 76 77 79 82 85 90 96 102 106 111 117 120 122 123 119 120 119 119 116 113 104 98 93 88 82
39 36 35 40 44 47 48 53 57 61 65 68 71 72 75 77 78 81 82 79 81 84 87 92 96 103 108 113 119 121 121 120 121 119 119 118 115 112 106 98 93 87 81 76
41 42 41 45 48 50 55 58 63 65 69 72 76 77 77 79 81 85 82 82 85 89 93 96 102 108 114 120 122 121 120 120 120 120 118 116 112 107 100 94 88 81 75 72
45 47 47 47 51 54 60 64 66 70 74 78 81 80 79 81 85 86 84 86 90 94 98 104 110 115 119 124 122 121 120 123 123 118 115 112 108 101 94 88 82 76 73 69
49 50 52 51 55 62 65 68 72 77 80 80 81 80 84 85 89 89 89 92 96 99 104 110 117 122 126 125 122 120 122 124 121 116 113 110 103 96 90 83 78 74 70 67
45 51 57 61 65 68 70 74 77 79 80 82 82 85 88 90 92 91 93 97 101 105 110 116 122 127 128 124 120 124 124 121 117 114 110 104 96 90 85 78 74 70 67 64
57 62 64 68 72 74 76 78 80 83 86 85 86 90 92 94 93 95 97 101 107 112 117 124 128 127 121 119 123 124 123 117 114 111 105 98 91 86 79 75 70 68 65 61
63 66 69 72 74 77 80 84 86 87 86 88 91 94 95 95 96 99 103 108 113 119 124 128 127 121 120 122 125 124 118 114 111 106 99 91 87 81 74 70 68 66 61 59
69 72 75 77 80 83 87 88 89 88 90 92 95 97 96 98 101 106 111 115 121 126 129 125 122 122 123 128 126 120 116 111 106 99 93 87 82 75 71 68 65 62 60 57
75 77 81 83 87 88 89 89 89 92 94 95 97 97 99 102 108 113 117 123 126 129 124 120 122 124 128 127 120 115 110 106 99 93 88 82 77 72 69 66 62 59 56 55
81 83 84 86 87 86 87 90 94 96 98 98 99 101 105 110 115 120 125 129 129 123 121 123 125 129 126 119 115 109 104 98 94 88 83 78 73 69 66 63 60 57 54 52
82 84 85 86 87 88 93 95 98 99 99 101 104 109 113 118 123 128 131 129 124 123 126 129 128 126 118 112 108 103 98 91 87 83 79 73 69 66 63 61 58 56 53 51
84 85 86 89 92 94 97 99 100 100 103 108 113 117 122 126 130 130 126 124 124 126 130 127 117 110 108 106 101 96 92 86 81 77 73 69 66 63 60 58 56 54 52 49
88 90 92 94 96 97 99 100 103 107 112 116 120 124 128 131 128 122 122 124 124 124 117 110 109 104 101 98 94 90 85 80 76 72 68 65 63 60 57 56 55 53 51 49
90 91 93 95 97 99 103 107 111 116 120 123 127 130 131 123 123 126 124 122 115 108 107 101 98 95 92 88 86 83 78 74 71 69 65 63 60 58 55 55 54 53 51 48
90 94 97 100 103 107 111 115 120 123 127 130 130 125 124 127 127 121 110 104 104 100 99 96 93 89 85 82 79 77 74 70 68 65 63 61 58 55 54 53 53 53 50 47
98 101 105 109 113 117 120 122 126 128 127 122 123 125 124 117 107 103 101 99 96 95 92 90 87 84 81 78 75 72 69 67 64 62 61 59 56 54 53 52 52 51 49 46
108 112 116 120 122 124 126 125 121 118 120 122 119 114 105 100 99 98 96 96 91 89 87 84 82 79 77 74 71 69 67 64 63 61 59 57 54 53 52 51 50 48 46 43
117 121 123 123 121 117 115 115 116 119 115 107 103 103 99 96 95 96 89 86 83 81 80 78 76 74 72 71 68 66 64 62 61 59 58 55 53 51 51 50 49 46 44 41
119 116 113 110 111 112 114 115 110 106 105 102 100 100 96 94 88 85 84 81 79 77 76 74 73 71 70 68 65 63 62 61 59 57 55 54 52 51 50 49 47 44 43 41
112 113 114 113 111 109 103 100 99 99 99 95 93 92 87 84 81 78 77 74 72 72 71 71 70 69 67 65 63 62 60 59 56 54 54 53 51 49 48 47 45 44 42 41
111 110 108 103 99 98 96 96 93 91 89 87 82 82 80 77 76 73 73 71 69 68 67 66 65 64 64 63 61 60 57 55 53 51 50 50 49 47 45 43 42 42 41 39

GFSNGP_250_spd_045.txt.gz
Wind_Speed
13 13 13 15 18 19 20 23 25 28 30 29 34 38 41 44 46 51 56 58 60 62 64 64 66 63 63 66 69 73 79 83 89 97 102 109 110 110 111 111 114 115 113 112
17 16 17 20 24 23 24 27 29 31 34 34 40 43 46 50 52 57 60 63 66 67 68 68 71 70 70 71 76 80 85 91 97 104 109 115 114 115 114 114 115 113 109 106
20 21 20 25 29 27 29 31 33 35 37 40 44 48 53 55 60 63 66 69 71 73 72 74 78 79 76 78 82 87 91 97 103 108 116 117 117 112 115 114 113 109 104 101
24 24 24 32 34 33 32 35 37 38 41 45 49 54 58 61 64 67 70 74 76 75 75 79 82 83 81 83 88 92 98 104 110 116 118 117 114 114 115 111 108 105 102 97
27 30 30 36 39 39 38 40 40 42 46 50 55 59 63 65 68 72 76 78 79 79 81 84 86 87 85 88 93 98 105 111 116 120 118 116 114 114 113 108 106 104 100 94
33 33 34 39 43 43 44 42 45 47 51 55 59 64 67 69 73 77 79 81 83 85 87 89 90 89 90 93 98 104 111 117 120 120 115 115 114 113 112 109 106 102 95 89
36 36 38 43 45 47 48 47 50 52 56 59 63 68 71 74 78 80 83 85 89 88 91 92 92 91 93 98 105 110 117 121 121 117 115 113 114 115 112 108 104 98 91 85
39 41 39 44 46 48 50 53 54 56 60 65 69 72 75 79 82 85 88 90 91 93 94 96 93 94 98 105 111 117 122 124 121 117 116 117 117 114 109 107 101 93 87 82
45 46 46 45 49 53 54 55 56 60 65 70 73 77 80 83 86 89 93 93 93 96 97 96 95 98 105 111 117 123 125 121 117 117 118 121 118 111 107 103 96 88 83 78
46 48 49 50 53 55 58 60 63 69 71 74 78 81 85 87 91 94 95 95 97 99 100 98 100 106 111 117 123 126 120 118 118 119 122 120 112 109 105 98 91 85 80 74
46 49 49 53 56 60 64 67 70 72 75 80 83 85 89 93 97 96 95 97 100 102 101 102 107 113 118 123 128 122 119 120 119 122 122 114 111 107 100 92 86 80 75 70
49 54 58 62 65 68 71 72 74 78 82 84 88 92 94 96 96 96 99 102 104 102 104 108 114 119 124 127 124 120 120 121 122 122 115 112 108 102 94 87 81 76 71 67
58 61 63 66 68 71 75 78 80 83 86 90 93 95 96 95 97 101 103 104 104 106 110 116 121 125 128 123 120 119 123 124 123 114 113 107 102 95 88 81 77 72 67 64
65 67 70 73 75 78 80 83 86 90 92 94 95 96 97 99 102 104 105 105 108 113 118 123 127 128 121 120 121 125 127 122 113 112 106 101 93 88 82 77 73 67 66 62
73 75 76 78 79 82 86 90 93 93 93 94 97 99 101 103 104 106 108 111 116 122 126 130 128 122 122 123 128 130 118 112 110 105 99 92 87 82 78 73 69 64 61 60
75 76 79 83 87 90 92 92 92 92 94 97 100 103 104 104 106 109 114 119 125 129 132 127 123 123 125 127 125 115 113 108 102 97 91 86 82 77 74 70 65 61 59 57
80 83 86 88 90 90 90 92 95 98 100 101 101 103 105 108 113 117 123 128 132 129 126 122 122 125 131 121 115 110 103 99 94 89 85 81 78 74 69 66 62 60 57 54
86 87 88 88 90 92 94 96 97 97 99 102 105 109 112 117 120 125 130 129 126 121 122 122 125 123 112 111 105 100 95 91 86 83 79 75 73 69 65 62 60 57 54 51
89 90 91 92 93 94 95 97 100 102 105 109 112 117 120 125 129 128 124 122 124 121 126 124 115 114 108 101 95 91 88 85 82 78 74 71 68 65 62 59 57 55 52 49
89 89 90 92 94 96 99 102 106 109 112 115 119 124 128 127 125 121 121 124 126 119 114 112 107 102 96 92 88 84 82 79 76 74 69 66 63 61 59 57 54 52 49 47
88 90 93 95 99 102 105 109 113 117 120 124 126 124 122 120 120 123 125 122 117 113 109 103 97 92 88 85 84 81 78 74 72 68 65 62 59 58 57 55 54 51 49 46
94 97 100 103 106 110 113 117 121 124 124 123 122 118 117 120 124 122 116 111 107 103 97 91 88 86 83 80 78 75 73 70 67 64 61 58 57 56 55 54 53 51 49 46
102 105 107 110 115 119 121 121 121 120 117 116 118 119 119 115 112 109 105 103 97 92 88 85 83 81 78 77 74 71 68 66 63 61 59 58 56 54 53 53 52 49 47 45
109 113 116 119 121 120 118 115 113 116 116 117 117 114 111 107 103 101 95 91 87 83 81 78 77 75 72 71 69 67 65 63 61 60 58 56 54 52 51 50 49 46 45 43
117 117 116 114 115 112 112 114 115 113 111 109 107 107 104 102 97 90 85 82 79 77 74 73 71 70 67 65 64 63 62 60 59 57 54 52 50 48 47 46 45 44 42 41
114 113 111 111 113 114 112 110 108 105 103 98 96 93 91 88 86 83 81 78 75 73 71 69 68 66 64 62 60 59 58 55 53 51 50 49 48 47 46 44 43 41 39 38
112 113 112 110 107 105 104 101 97 95 92 88 83 82 81 79 78 77 75 73 71 69 67 65 64 63 61 58 56 54 53 52 51 50 49 46 45 44 43 42 40 38 38 37

GFSNGP_250_spd_048.txt.gz
Wind_Speed
17 18 18 18 19 20 19 19 23 26 28 27 30 34 36 39 42 47 49 52 56 61 64 66 69 71 74 78 81 81 82 83 84 82 84 91 97 104 110 113 112 110 112 110
22 22 22 20 23 24 21 24 27 28 34 35 36 39 42 44 48 52 55 59 63 66 70 71 76 78 81 84 86 86 87 90 88 86 90 98 104 111 115 117 114 115 112 110
25 23 22 25 28 25 26 30 31 33 36 38 42 44 46 48 53 57 61 65 68 70 74 78 81 84 85 89 91 89 92 94 92 92 97 104 111 116 121 118 115 113 111 105
26 25 25 32 32 30 31 34 37 39 40 43 46 48 50 53 56 60 66 69 72 75 79 83 85 87 91 94 93 93 96 98 95 98 103 110 117 121 122 117 115 113 108 102
29 30 31 35 36 35 35 40 42 44 46 49 50 50 54 57 61 65 70 73 76 80 84 87 89 93 97 96 94 97 100 98 99 103 110 117 121 123 118 113 114 109 103 101
34 34 34 37 38 39 41 42 47 50 51 53 52 55 59 62 66 70 73 77 80 84 88 89 93 97 98 96 99 102 100 100 104 111 117 122 123 116 113 113 112 108 103 99
34 35 36 39 41 43 45 48 49 52 55 57 59 61 66 68 70 73 79 82 86 89 91 95 98 99 97 97 102 102 101 106 111 119 123 126 116 113 115 114 108 104 102 97
36 38 38 41 42 45 48 51 53 54 57 59 63 67 70 71 74 79 82 86 89 92 96 99 100 100 99 103 104 104 107 113 119 124 125 117 116 114 117 112 105 104 99 92
41 42 43 44 45 48 52 54 57 57 58 62 65 69 74 77 80 83 87 90 93 97 100 101 100 100 104 105 106 109 114 120 124 124 117 115 117 116 113 109 107 101 95 86
43 46 46 48 50 52 51 52 54 59 65 69 71 74 76 79 83 87 91 95 99 101 100 99 102 105 104 106 110 115 121 124 121 115 116 117 115 112 107 107 102 95 87 80
45 47 48 49 50 52 54 58 63 67 71 74 76 80 82 85 89 93 98 101 100 98 100 104 106 105 108 112 117 122 127 120 118 119 118 115 111 108 110 105 96 88 81 76
47 49 51 53 55 58 62 65 69 72 75 79 82 85 87 92 96 100 99 96 99 102 104 104 107 111 114 120 124 126 122 119 120 119 117 113 109 108 102 94 87 82 77 72
53 55 57 58 61 65 69 72 75 79 81 84 86 89 94 98 98 97 98 100 102 103 106 109 113 117 122 125 127 122 118 120 118 116 111 109 108 101 95 86 81 77 74 70
61 61 63 66 70 73 76 77 80 84 85 88 92 97 99 96 98 99 101 103 105 108 112 115 119 124 126 125 121 118 120 118 115 114 111 107 102 94 87 82 77 72 69 67
65 69 71 72 74 77 79 83 85 88 92 97 98 96 97 99 99 101 104 107 111 115 118 122 125 126 123 121 118 117 115 113 111 110 106 99 92 86 81 76 72 69 66 63
73 73 75 77 79 82 84 88 92 95 97 96 96 96 96 98 102 106 109 113 118 123 126 128 126 123 120 118 114 113 111 112 109 103 96 90 85 80 76 71 68 65 62 60
75 76 78 80 83 86 90 94 96 94 95 95 95 98 101 105 108 112 116 120 125 130 129 123 121 121 115 114 112 112 109 104 98 93 88 83 78 74 71 68 65 62 59 56
76 79 81 84 88 91 93 94 93 93 96 99 102 105 109 113 117 120 123 127 130 123 120 120 119 116 113 113 111 106 98 93 89 86 81 77 73 70 68 65 62 59 57 54
82 85 88 91 93 95 94 95 97 99 102 105 108 112 118 121 123 126 128 126 121 118 120 118 116 114 111 106 100 95 89 86 82 79 75 72 70 67 64 62 59 57 56 54
88 91 93 95 95 94 97 100 103 106 108 111 115 119 124 126 128 124 121 117 123 118 115 112 111 107 101 96 91 87 83 80 76 73 71 69 67 64 62 60 58 56 55 53
94 96 96 96 97 100 103 105 107 111 115 119 122 125 126 123 119 119 122 118 119 115 112 108 100 95 90 88 84 81 78 75 72 69 67 65 63 61 60 59 57 54 53 51
95 97 99 100 102 105 107 110 115 119 122 124 124 120 118 117 117 119 120 115 111 107 102 95 90 86 83 80 78 75 73 71 69 66 64 62 61 59 57 55 54 52 50 48
98 100 102 103 106 110 115 118 121 122 123 120 120 117 116 117 115 113 111 109 101 95 89 85 83 80 76 74 73 70 68 66 66 65 63 60 57 54 52 51 50 48 48 46
100 103 107 110 113 117 120 121 120 118 117 115 116 115 112 112 112 107 101 95 90 86 82 80 76 74 71 69 68 66 64 63 62 61 58 55 54 52 51 50 49 47 46 44
108 111 113 115 118 118 116 116 114 113 117 117 113 112 108 103 98 94 90 86 83 80 76 73 71 69 66 65 64 63 60 57 55 55 54 53 52 51 49 47 46 45 44 43
111 114 115 113 112 114 113 114 115 112 110 109 105 101 98 93 88 85 82 78 76 74 72 69 66 65 64 62 60 58 56 54 53 52 50 49 48 47 46 44 43 42 41 40
109 109 112 112 112 113 112 110 108 103 99 96 93 88 84 83 81 78 76 73 71 69 67 66 64 63 62 59 59 58 54 52 50 48 47 45 44 43 42 41 40 39 38 38

GFSNGP_250_spd_051.txt.gz
Wind_Speed
20 22 22 23 23 24 24 25 23 26 27 28 27 31 35 39 41 44 47 50 52 56 61 65 69 71 75 78 81 84 89 91 95 96 96 93 94 98 98 99 106 111 116 119
23 25 26 25 25 28 28 25 25 30 31 31 35 36 39 42 46 48 52 55 56 60 63 69 73 76 79 83 85 90 92 95 99 98 97 96 100 100 101 105 112 117 121 118
27 28 26 28 30 29 28 30 30 32 36 37 41 43 45 47 49 52 56 58 59 64 69 74 77 81 83 86 91 93 96 100 101 98 98 101 102 103 107 112 117 120 119 117
30 28 28 33 32 32 33 34 34 37 40 42 45 47 51 52 55 57 57 58 63 70 74 77 80 83 86 91 94 97 101 103 99 99 102 103 104 107 114 117 120 121 115 115
30 30 32 35 37 36 36 39 38 42 45 47 49 51 52 55 57 59 62 65 70 75 78 80 83 86 91 94 98 102 102 98 100 102 102 106 109 115 118 120 122 115 114 107
35 34 34 37 40 40 40 41 44 48 49 51 52 54 57 57 61 62 65 70 73 77 79 84 88 92 95 98 102 99 99 101 102 104 108 111 115 120 121 123 115 112 108 104
37 36 37 39 41 42 44 45 47 50 53 55 56 59 61 62 62 67 70 74 77 82 86 90 92 94 100 101 98 99 101 103 106 110 114 117 122 123 125 116 113 109 106 103
39 39 38 40 40 43 45 47 51 53 55 57 59 62 63 64 69 72 76 80 83 88 91 93 96 101 101 99 99 102 104 108 112 116 120 124 124 123 117 113 109 106 103 97
41 40 40 42 43 46 49 52 54 57 59 61 60 62 66 70 73 77 81 85 89 93 94 97 102 100 99 100 102 106 110 113 118 122 127 127 123 117 115 111 108 103 97 92
44 43 43 44 46 48 51 54 56 57 59 61 63 65 70 74 78 83 86 90 92 95 99 101 98 98 100 103 108 112 116 120 123 127 127 122 119 115 111 107 105 98 94 87
46 47 47 45 49 49 51 53 56 60 64 67 70 73 75 80 84 88 90 92 96 101 100 98 98 101 104 110 114 119 122 125 129 124 119 117 114 113 110 105 97 92 88 83
48 49 48 47 52 56 59 61 63 66 69 73 76 79 82 86 89 91 95 99 102 99 98 100 104 108 111 116 120 123 125 128 122 118 117 114 110 109 104 98 93 87 83 79
50 53 55 58 60 63 65 66 68 73 76 79 82 85 89 91 93 96 99 100 99 99 101 106 110 113 118 123 124 127 126 122 119 117 114 110 107 103 96 93 89 85 79 75
58 61 61 62 64 67 70 74 77 80 82 85 88 90 92 94 97 99 101 101 101 104 107 111 115 119 126 126 126 123 120 118 116 114 111 107 101 96 91 86 83 79 75 72
60 61 61 65 69 72 76 79 82 85 87 89 90 92 94 99 102 102 100 103 107 111 114 116 121 125 127 126 123 119 116 113 112 110 106 100 95 91 86 81 78 74 70 66
59 63 68 72 75 79 82 83 85 87 87 89 94 97 100 104 104 103 105 109 114 116 121 124 126 128 125 122 117 114 111 108 105 101 98 93 88 84 80 76 73 70 67 64
69 72 75 78 81 84 85 85 86 88 92 97 100 104 106 106 106 108 112 115 118 123 127 128 125 123 118 118 113 109 106 105 101 95 89 85 82 78 74 72 69 67 64 61
74 76 79 83 85 84 85 88 92 97 100 103 106 108 108 109 111 114 116 121 126 127 128 125 119 118 115 109 107 104 102 100 93 88 84 80 77 73 71 69 66 65 63 61
80 83 84 85 87 89 92 96 99 102 104 107 108 109 111 113 115 119 123 126 127 123 121 119 116 111 109 108 103 99 94 90 89 83 80 76 73 71 68 67 66 64 62 60
84 84 85 89 92 95 98 101 103 106 109 109 110 112 115 119 123 125 125 123 122 116 116 113 110 109 107 101 96 90 87 83 82 78 74 72 69 67 67 66 64 61 58 56
86 88 91 95 98 101 102 104 108 109 109 111 114 118 123 127 124 121 121 118 118 116 113 110 108 105 100 93 90 84 81 78 76 74 71 69 69 68 65 62 59 57 55 53
91 95 99 100 101 104 106 107 108 110 113 118 122 124 123 121 119 118 115 113 111 109 108 105 103 96 91 87 83 80 76 73 71 68 68 67 66 65 63 60 58 56 53 51
98 100 101 102 103 104 106 109 112 117 122 122 121 119 117 116 113 112 114 113 109 106 102 96 91 86 83 79 77 74 72 69 67 66 64 62 60 60 59 58 55 53 51 49
95 95 98 101 103 108 113 117 120 120 117 116 114 113 113 114 116 111 107 104 102 97 92 86 84 79 76 74 72 69 68 67 65 61 58 58 56 54 53 53 52 50 49 48
97 100 103 108 112 117 118 115 112 112 112 112 113 112 111 110 108 107 104 97 92 87 84 80 77 74 73 70 68 67 66 63 61 59 56 53 53 52 50 49 48 47 46 45
104 108 110 112 112 111 111 112 111 112 115 115 113 111 109 104 101 96 90 87 83 80 77 74 73 70 69 67 65 63 62 61 60 57 54 52 51 49 47 46 44 43 42 42
104 106 105 106 108 109 110 112 113 111 108 107 104 101 97 92 88 85 82 79 77 74 72 70 68 68 66 64 62 61 60 57 56 56 54 49 48 46 45 43 41 40 40 39

GFSNGP_250_spd_054.txt.gz
Wind_Speed
29 27 28 27 25 24 25 27 23 29 23 26 29 27 34 36 39 41 43 47 48 50 53 57 60 61 65 70 75 80 82 85 90 92 94 98 103 99 96 97 100 104 109 110
29 26 26 24 25 26 27 28 25 28 26 34 31 35 36 41 40 47 48 52 54 56 58 60 62 66 71 75 78 81 86 89 93 94 99 103 100 98 99 102 106 109 113 115
27 26 25 26 31 28 29 30 29 30 33 36 36 39 44 46 48 51 54 54 58 59 61 64 65 70 74 78 81 86 90 95 96 99 104 100 99 100 105 110 113 114 119 119
29 27 29 34 33 31 32 34 34 33 37 41 40 46 47 50 53 55 58 59 61 64 66 65 71 76 80 82 86 90 96 97 101 104 101 99 101 106 111 115 117 121 122 119
30 29 33 34 33 33 34 37 36 40 43 45 47 50 51 53 56 58 60 63 65 66 68 72 77 80 85 89 92 94 96 102 105 101 100 103 107 112 117 120 121 122 121 117
33 32 33 35 37 36 36 37 40 44 47 50 51 53 54 56 59 62 64 66 66 69 74 77 81 85 90 93 95 98 103 106 102 101 105 109 113 118 120 124 125 125 119 115
36 34 34 35 40 38 40 42 44 47 48 52 51 56 57 59 63 64 65 68 70 74 78 81 86 91 94 96 100 104 105 103 102 106 110 115 119 122 125 127 125 118 115 111
37 37 36 39 38 42 43 44 47 48 48 53 53 58 61 61 62 65 68 72 76 80 84 87 91 94 96 100 104 107 104 103 106 111 116 120 123 126 128 122 117 114 110 105
40 39 40 40 41 45 47 48 48 52 53 55 56 56 61 62 66 70 74 78 82 85 89 93 95 97 100 104 109 106 105 108 112 115 120 125 128 129 121 117 113 109 105 99
44 44 43 44 45 47 48 51 51 53 56 57 58 58 63 69 74 77 81 83 87 91 94 95 97 100 104 109 106 106 110 115 118 122 125 128 128 121 120 114 108 104 99 95
45 46 46 43 50 49 51 53 53 53 55 60 64 69 72 75 79 82 86 90 93 95 95 97 101 106 109 108 108 111 115 119 123 126 126 123 117 116 111 112 107 101 95 88
47 49 49 47 51 54 54 53 58 63 67 70 73 75 79 82 85 87 90 93 96 96 98 103 108 110 108 109 112 116 119 123 126 126 122 118 113 108 109 104 103 98 91 84
48 53 53 51 52 55 59 63 67 69 70 72 75 80 84 87 89 92 95 98 98 101 106 109 111 111 111 113 118 120 125 125 124 121 118 112 108 105 102 99 96 91 87 82
50 51 54 56 58 62 64 66 67 68 72 75 81 86 90 92 94 97 98 99 104 108 109 111 112 114 116 120 124 127 123 120 117 113 110 108 105 101 97 90 87 86 81 77
54 56 57 60 61 62 64 66 71 75 79 83 88 92 95 96 97 100 102 107 111 110 112 115 116 120 124 127 127 123 120 115 113 109 108 105 100 94 90 87 83 78 76 73
60 62 63 64 66 68 71 75 79 83 87 90 94 96 97 98 101 105 109 112 111 115 118 118 122 126 130 128 122 119 114 110 105 102 100 95 95 89 85 81 78 76 73 70
64 67 70 72 74 76 79 84 88 92 94 96 98 100 100 103 107 111 114 115 117 117 120 123 128 130 124 122 120 114 107 102 103 98 96 90 89 86 79 77 73 71 70 69
71 74 75 77 79 83 87 90 93 94 96 98 100 103 106 109 112 117 117 118 118 122 127 130 128 121 120 117 112 109 104 101 97 92 90 87 85 81 78 74 71 68 68 68
73 74 76 79 83 86 90 93 96 98 101 102 104 108 112 115 118 118 116 120 124 127 130 124 121 118 112 111 108 107 100 97 93 90 86 82 80 78 75 73 71 69 66 63
74 78 82 85 89 93 94 97 99 100 102 106 111 115 118 116 114 118 123 127 128 126 120 118 113 110 106 106 102 100 96 92 89 86 82 78 75 73 71 71 70 68 65 63
80 83 86 89 92 94 95 98 101 105 110 114 114 112 111 116 121 125 128 128 124 119 115 109 109 105 104 101 98 93 90 87 83 79 76 74 71 70 68 67 65 64 63 59
86 88 90 91 93 96 100 105 109 111 110 108 111 114 118 123 126 126 122 119 114 110 108 108 105 103 99 95 92 87 83 80 78 75 72 71 68 66 63 62 61 59 57 56
87 89 92 95 99 104 106 106 105 107 110 113 117 121 123 122 119 116 113 112 110 110 107 105 101 97 94 90 86 82 79 76 73 72 70 68 65 62 60 58 56 54 52 51
91 95 100 103 104 103 103 107 109 113 116 119 120 117 117 116 115 111 108 109 108 106 102 97 94 90 86 83 80 77 74 73 71 68 67 65 63 59 55 54 53 52 49 48
97 99 100 100 102 105 108 112 114 115 115 115 114 113 113 111 109 110 110 108 104 99 95 91 88 84 81 78 75 74 72 70 67 65 64 62 60 58 54 51 51 49 47 45
94 96 99 103 108 110 111 112 113 112 111 111 110 111 110 110 109 107 105 100 95 91 87 84 81 80 77 74 73 71 69 66 65 63 61 59 58 56 54 50 48 47 46 44
99 104 107 108 109 109 108 108 109 108 107 109 109 110 109 106 104 99 95 91 88 84 82 80 77 75 73 72 70 67 65 64 62 60 58 56 54 51 50 49 47 46 44 42

GFSNGP_250_spd_057.txt.gz
Wind_Speed
33 31 28 32 30 31 31 33 34 33 29 27 24 27 30 34 38 39 39 42 44 46 49 52 55 58 60 62 67 69 72 75 79 82 87 92 95 98 102 106 101 98 101 106
33 33 30 31 30 31 30 30 29 28 26 30 28 30 31 35 42 44 45 49 50 53 54 57 60 63 65 68 71 74 78 81 84 88 92 95 98 102 108 106 101 102 107 110
35 32 30 30 31 27 28 29 29 30 30 33 33 35 38 43 43 45 48 51 53 56 58 61 63 67 69 70 72 77 82 86 90 93 95 98 101 106 109 105 105 108 111 116
36 31 31 33 30 29 30 31 30 33 34 37 39 40 43 45 49 53 55 56 58 59 61 63 65 68 70 73 77 81 86 90 95 96 97 101 104 110 108 107 109 113 117 117
36 35 34 33 33 32 33 31 34 37 37 40 43 44 46 48 52 54 57 60 61 63 64 67 69 73 77 80 83 86 91 95 96 98 102 107 111 109 106 108 114 120 119 120
38 37 35 35 36 36 32 32 39 39 39 41 43 45 47 49 52 54 56 59 61 64 68 71 75 80 84 87 90 93 96 98 99 103 108 112 112 111 113 116 119 121 124 122
41 39 38 37 40 37 36 37 39 39 41 44 45 48 48 51 55 58 60 61 64 68 72 76 81 85 88 92 95 99 101 101 105 109 112 114 112 114 119 122 122 124 119 117
42 42 40 40 40 41 39 40 41 43 44 46 49 50 52 57 59 61 62 65 69 72 76 81 85 89 91 95 98 102 103 106 111 111 114 115 117 121 126 125 122 119 115 112
43 43 41 40 43 46 43 43 45 48 49 51 51 53 56 59 61 64 67 70 73 79 84 86 90 92 96 99 102 104 107 113 112 114 114 116 120 127 128 122 119 118 113 108
46 43 42 42 48 49 48 48 50 51 54 56 56 56 59 62 66 68 72 77 81 85 88 91 94 97 101 102 103 108 113 116 116 115 117 121 125 124 119 118 115 113 109 103
49 44 44 46 47 50 52 52 53 55 56 58 60 61 63 66 70 75 78 81 85 89 92 96 100 103 105 104 108 114 119 119 117 119 123 125 124 118 114 113 109 108 105 97
48 47 46 47 49 52 53 54 56 57 59 61 65 68 71 73 74 77 80 85 90 94 98 102 105 106 107 110 115 118 119 118 120 124 127 124 121 115 113 109 106 105 97 88
50 50 48 49 51 54 55 56 58 60 63 67 69 72 72 74 78 83 87 93 97 102 103 105 107 110 114 118 119 117 117 123 125 127 124 121 116 111 103 100 99 98 90 84
52 54 53 56 55 56 56 58 60 63 67 69 71 74 77 82 87 91 95 100 103 104 106 108 111 117 119 116 116 120 124 125 124 120 117 111 106 104 99 91 89 91 87 80
55 55 55 56 56 58 61 64 65 68 71 74 77 81 84 89 93 97 100 103 105 107 110 114 118 119 116 118 123 125 126 123 121 117 110 106 100 95 90 85 84 81 80 78
58 58 59 60 62 63 66 68 70 73 76 79 84 88 91 94 97 99 102 105 108 112 114 119 117 118 122 126 125 127 123 120 117 110 105 100 94 89 85 80 78 75 74 72
60 60 62 65 66 70 71 73 76 78 82 86 89 91 94 96 100 103 107 109 111 115 116 113 119 124 127 125 125 121 116 112 108 103 99 95 91 87 82 78 77 73 70 68
59 61 64 67 70 72 74 77 80 82 84 88 91 93 97 102 106 109 110 111 117 115 117 122 126 126 125 124 120 116 111 106 102 98 93 90 87 84 81 77 74 71 69 68
62 64 67 70 72 75 78 81 84 87 89 91 93 99 105 107 107 109 113 116 115 118 123 127 126 125 124 120 113 107 105 100 96 93 90 86 82 80 77 74 72 71 68 66
66 69 73 75 78 81 84 85 86 89 92 97 102 105 105 107 111 115 114 114 118 123 126 124 123 119 115 109 105 103 100 96 92 89 85 82 78 74 71 71 68 67 65 64
75 78 79 80 79 81 85 89 92 96 99 104 105 106 109 113 113 113 115 121 126 126 125 122 117 111 107 103 101 100 95 91 88 84 80 77 75 73 69 66 64 63 61 59
77 77 79 83 87 91 93 94 96 98 101 104 107 110 113 112 114 118 123 126 124 121 118 114 107 105 103 102 98 94 91 86 83 80 76 74 72 69 67 64 62 59 56 55
82 85 88 89 88 89 93 95 97 100 103 107 109 109 110 115 120 124 125 122 118 116 112 106 104 104 101 95 92 88 86 82 79 76 74 71 68 66 65 63 59 55 51 49
78 82 85 88 91 93 95 97 101 104 104 105 107 111 116 122 122 120 118 115 113 108 103 102 102 98 93 90 87 84 81 79 76 73 70 67 66 64 61 59 56 53 49 46
82 84 87 91 93 95 96 97 98 101 106 110 114 117 119 118 117 115 113 110 106 103 101 101 96 92 89 86 84 80 78 76 73 70 67 65 62 59 57 54 53 50 47 45
85 87 88 89 91 93 96 101 103 106 112 115 115 114 114 113 111 110 105 104 102 101 98 93 90 88 86 82 80 77 75 72 69 67 65 62 58 55 53 50 48 46 45 43
85 87 90 93 95 99 102 107 109 111 112 112 111 110 109 108 106 104 101 100 100 95 91 89 86 83 81 78 76 73 70 68 66 63 61 58 55 53 50 48 45 44 42 41

GFSNGP_250_spd_060.txt.gz
Wind_Speed
36 32 28 31 29 31 30 31 29 31 31 30 26 22 21 24 30 35 36 35 38 41 43 46 48 51 55 56 59 61 65 67 70 74 78 81 86 90 93 97 98 100 107 107
36 32 29 26 32 37 29 30 27 30 30 24 24 24 27 31 34 37 39 41 44 46 48 51 54 55 57 60 62 66 69 72 76 80 84 87 91 94 97 100 101 109 110 109
35 34 29 31 36 34 32 29 28 28 28 27 26 29 32 34 36 39 41 43 46 49 52 53 54 56 59 63 66 70 74 79 83 86 89 92 97 100 101 104 109 114 113 108
39 35 31 37 34 35 32 29 28 30 31 33 31 32 35 38 40 41 42 44 46 48 50 52 56 59 63 67 71 75 80 84 89 92 94 98 102 104 104 109 114 117 112 114
37 39 36 38 35 36 34 32 33 35 35 36 35 35 36 39 43 45 48 49 50 52 55 58 61 65 68 72 77 81 85 90 92 95 99 103 105 106 109 114 116 111 116 119
38 41 37 42 37 38 35 35 38 39 39 38 38 38 40 43 45 47 50 52 55 57 60 63 66 69 73 77 82 86 90 93 96 101 104 106 107 110 116 114 111 117 119 123
38 42 40 43 41 39 39 42 41 41 42 41 41 43 45 47 49 51 52 55 58 61 64 68 71 75 79 83 87 89 92 97 102 104 106 109 112 118 112 114 116 119 120 119
40 43 43 44 43 43 43 43 44 45 46 44 45 47 50 52 53 55 57 59 62 65 69 72 76 80 84 87 90 94 99 104 105 107 110 112 116 113 118 119 121 120 117 116
43 43 42 45 46 46 44 46 48 50 49 49 50 51 54 56 57 58 60 62 66 69 73 76 80 83 86 91 95 100 104 107 109 110 114 114 112 118 120 123 122 121 119 114
44 47 45 49 50 48 48 49 50 51 51 53 55 57 59 60 60 61 64 68 70 73 77 79 83 87 92 96 100 103 107 110 111 114 113 115 120 121 122 124 122 117 115 111
43 51 49 47 49 51 52 51 52 53 55 55 57 59 60 62 63 65 69 73 75 78 80 84 89 93 97 100 102 107 110 112 116 114 117 121 122 123 123 121 118 114 110 105
45 50 52 50 51 53 53 52 52 55 56 58 60 61 63 64 67 70 73 75 78 82 86 91 95 98 100 102 107 110 111 115 115 117 122 125 124 121 120 120 115 111 106 97
48 50 53 52 53 55 54 55 56 58 59 61 64 65 66 69 72 75 77 80 84 88 93 97 100 99 102 108 111 111 115 114 115 120 125 124 120 117 111 106 106 103 97 91
47 53 55 54 52 54 56 58 60 61 61 63 66 68 70 73 75 78 81 85 90 93 97 99 100 103 109 112 112 116 115 118 120 123 120 118 114 111 107 102 94 91 92 85
50 54 57 58 54 53 57 61 63 62 65 68 70 72 74 77 80 83 86 90 94 97 99 100 104 110 114 113 116 116 118 122 124 120 120 117 113 107 102 96 91 86 83 80
55 56 58 60 57 57 58 60 62 66 69 72 74 76 79 82 84 88 91 95 98 99 100 105 112 114 113 115 116 118 122 125 121 118 115 110 106 100 94 90 87 83 79 76
57 57 59 61 64 63 62 64 66 68 71 74 78 81 84 86 89 92 94 96 98 103 108 112 112 113 115 115 119 122 124 119 117 115 110 104 99 94 91 86 83 80 75 73
57 58 60 64 65 65 68 68 69 73 76 79 82 85 88 92 94 94 98 103 107 108 109 110 112 113 115 119 122 122 119 117 112 108 103 97 93 90 86 82 78 76 74 73
55 57 60 62 67 69 71 73 75 78 81 83 87 91 93 96 98 101 106 106 107 109 110 111 113 116 119 122 122 120 116 112 107 100 94 91 89 88 83 77 74 72 70 68
57 59 61 64 67 70 73 77 81 84 86 89 92 96 98 99 104 104 104 107 107 108 109 112 116 119 121 120 118 114 110 105 98 93 91 88 86 83 79 75 71 68 65 64
61 64 66 68 71 74 77 80 84 88 92 94 95 97 101 102 101 105 105 105 106 109 114 115 118 120 118 116 112 109 103 97 92 89 88 86 82 78 76 72 69 66 64 61
66 69 72 74 77 81 84 87 89 91 93 94 94 94 98 102 103 102 103 107 110 113 115 118 118 116 114 111 107 101 95 91 88 86 84 80 77 74 71 68 66 63 60 57
66 69 73 76 79 81 83 84 85 85 87 91 95 98 100 100 102 106 108 110 112 114 116 116 116 113 110 105 98 93 89 87 85 82 79 75 72 70 68 66 62 59 56 54
63 64 68 71 74 76 79 81 85 89 93 95 96 97 100 105 107 108 110 111 114 116 114 112 110 107 102 95 91 88 86 84 80 77 74 70 69 66 64 61 58 54 52 50
68 71 73 75 78 82 86 88 89 90 93 96 99 103 106 108 109 110 111 113 114 112 110 106 103 98 93 90 87 84 82 79 76 73 70 69 66 63 59 57 54 51 49 47
73 76 79 82 85 86 87 90 93 96 99 102 104 105 105 108 110 111 111 109 108 106 103 99 93 89 88 86 83 80 78 76 72 70 68 65 62 59 56 53 51 49 47 44
79 81 83 85 88 91 93 95 98 101 104 104 103 105 107 108 108 107 105 103 101 98 94 90 88 85 83 82 79 77 74 72 70 68 64 61 58 55 53 51 48 46 45 43

GFSNGP_250_spd_063.txt.gz
Wind_Speed
38 32 27 33 33 34 29 27 23 23 24 25 27 28 29 30 31 29 30 29 29 32 36 39 43 47 49 53 56 58 60 62 65 69 71 75 79 83 83 85 91 97 100 102
45 39 30 30 33 34 32 28 20 23 28 27 27 28 26 25 25 26 30 34 36 38 40 43 46 50 51 55 58 61 63 66 69 73 76 79 82 84 87 93 98 101 104 104
45 41 33 27 35 34 33 30 23 25 29 29 26 26 26 24 26 30 34 37 39 42 45 47 49 52 55 57 60 63 66 70 73 76 80 82 85 89 94 98 102 105 106 110
45 43 35 34 37 34 33 33 30 28 31 30 28 28 29 30 32 34 36 38 40 42 45 47 51 54 56 59 62 66 69 72 76 80 84 87 90 95 98 102 106 108 111 112
47 45 41 36 39 38 36 34 35 34 32 31 31 32 34 35 36 38 40 41 43 46 48 51 53 56 59 62 66 69 72 76 80 83 87 91 96 100 101 106 108 110 113 111
48 46 42 38 40 41 42 36 43 37 34 35 35 37 39 39 40 42 44 46 48 50 52 54 57 60 62 65 70 73 76 80 83 87 92 96 100 101 106 108 109 112 111 116
50 48 44 40 40 39 41 46 42 40 39 39 40 41 42 43 44 46 48 51 52 54 57 59 61 63 67 70 73 76 80 84 88 93 97 100 101 106 111 110 113 112 114 117
51 50 46 43 40 40 46 47 44 44 44 42 43 44 46 48 50 51 53 55 58 60 61 63 65 68 72 75 78 81 85 90 94 99 101 102 105 111 112 115 114 116 119 118
52 51 48 43 42 43 46 48 47 47 47 46 47 47 48 50 52 54 57 59 61 62 64 67 70 73 76 79 82 86 90 95 99 101 103 104 109 112 115 116 117 120 122 118
51 47 51 48 45 46 49 51 50 50 51 51 51 51 51 53 55 56 58 60 63 65 68 71 74 77 80 83 86 91 96 99 102 103 105 110 114 114 115 117 121 122 120 117
47 52 56 50 50 49 50 54 53 52 54 55 55 55 56 58 58 59 61 62 66 69 73 76 78 80 83 87 91 95 98 102 103 107 110 113 115 116 118 120 125 124 121 118
51 58 55 52 51 52 52 54 56 55 56 56 57 57 59 61 63 64 64 67 71 74 76 78 81 85 89 92 94 99 102 104 108 110 113 114 114 115 120 125 124 121 118 116
56 59 57 53 49 50 53 54 56 57 58 58 58 61 63 65 68 69 71 73 76 78 81 84 87 89 92 96 100 101 104 108 110 112 112 112 116 118 116 117 118 115 114 112
62 61 56 50 44 47 52 57 59 58 58 57 60 63 65 68 69 72 74 77 80 84 87 89 91 93 97 101 103 106 111 112 111 111 112 116 118 118 119 115 109 108 109 102
64 63 61 54 54 52 54 59 62 64 62 61 61 63 66 67 70 74 77 81 84 87 90 92 94 99 102 105 107 112 112 111 110 113 117 118 118 117 116 113 110 105 98 93
65 64 62 64 65 69 68 60 61 65 67 67 66 67 69 71 75 79 83 87 89 91 92 96 100 103 107 108 111 111 111 110 113 116 117 117 117 115 113 110 105 99 94 87
71 70 70 72 74 76 71 63 62 63 66 69 70 71 75 80 84 87 88 90 91 93 98 100 104 107 108 108 109 109 110 114 116 116 117 116 114 111 108 103 98 93 87 83
76 76 75 80 82 77 70 65 64 64 67 70 74 79 83 86 87 88 90 92 95 98 102 106 106 105 106 108 108 111 113 115 116 116 115 112 109 106 101 96 90 85 80 77
84 85 85 81 75 70 65 67 68 69 70 73 77 80 82 84 86 90 93 96 100 104 104 102 102 105 105 108 111 113 114 114 115 113 111 107 105 100 96 91 85 79 75 72
76 77 73 65 64 65 67 69 71 73 75 76 78 81 84 87 90 94 98 101 100 99 99 102 103 106 110 111 113 114 113 113 111 108 106 102 98 93 89 84 81 77 73 69
56 57 59 63 66 65 66 68 71 74 77 80 83 86 90 94 96 95 94 94 96 98 100 104 107 110 111 112 113 111 110 109 107 104 100 96 92 88 83 80 76 73 71 67
56 59 61 63 64 65 66 67 70 73 77 80 84 88 89 88 88 90 92 94 97 102 106 108 109 110 111 110 109 108 108 106 103 98 94 90 84 81 78 74 72 69 66 64
60 61 62 64 66 68 69 70 71 74 76 78 81 84 87 89 90 93 96 100 104 107 109 109 109 109 109 108 108 107 104 101 97 92 87 82 79 77 73 71 68 65 63 60
61 62 64 66 67 69 71 74 76 77 80 83 86 88 90 93 96 99 103 105 107 107 108 107 108 108 107 107 106 103 99 95 90 84 81 78 75 71 69 66 63 61 59 56
67 68 70 71 73 74 76 77 80 83 86 88 91 93 96 100 103 105 107 106 107 107 108 108 106 105 105 104 101 97 93 87 83 80 76 74 70 68 65 62 60 58 55 53
70 71 72 74 77 79 81 84 86 89 91 94 97 100 103 105 106 106 107 107 106 106 105 105 104 102 100 97 95 90 84 81 79 76 72 70 68 64 61 59 57 54 52 50
75 76 78 80 81 83 86 89 92 94 98 100 102 103 104 104 105 106 104 103 103 102 102 100 98 95 93 90 87 83 79 77 74 72 69 67 64 61 58 56 54 52 50 48

GFSNGP_250_spd_066.txt.gz
Wind_Speed
37 36 35 34 35 26 30 27 26 30 29 34 35 35 33 31 33 33 35 36 35 32 29 29 30 35 41 44 47 52 55 58 62 64 65 68 71 73 74 78 81 85 89 94
38 37 36 34 36 34 30 32 29 27 30 34 35 33 31 32 33 33 33 32 33 33 32 31 34 38 43 47 50 54 58 61 65 68 71 73 74 76 79 81 85 90 94 99
38 41 36 38 41 35 31 28 30 29 34 35 35 31 32 34 34 32 32 33 35 36 37 39 43 45 49 52 55 59 62 65 68 72 74 75 78 80 82 86 91 95 99 102
41 43 40 44 45 39 38 31 34 34 37 37 31 31 33 36 36 34 34 35 37 40 42 45 48 51 53 56 60 63 66 69 71 73 75 78 81 83 87 92 96 100 103 105
43 42 43 44 47 45 41 38 34 42 40 34 35 36 36 36 37 38 37 38 39 42 45 47 50 53 57 60 63 65 68 70 73 76 79 81 83 87 91 95 99 103 104 107
45 45 43 44 47 49 43 40 43 40 41 39 39 42 41 38 38 40 42 43 44 46 48 50 53 56 59 62 65 68 70 72 76 78 80 83 87 90 94 98 102 102 107 112
47 47 43 45 49 51 48 44 43 41 43 45 45 46 46 45 43 43 44 46 49 51 53 55 57 60 63 65 67 69 72 75 77 80 83 87 90 94 97 102 102 107 111 114
49 51 48 48 50 50 53 50 45 40 44 46 48 49 49 49 49 48 48 49 51 53 55 58 61 63 65 67 69 72 75 77 80 84 87 90 93 97 103 103 107 111 114 115
56 51 49 47 52 52 55 50 49 43 43 46 48 51 54 54 53 53 53 54 55 57 59 61 63 65 67 70 74 76 79 82 85 89 92 95 97 102 105 108 112 113 115 112
60 54 49 48 53 55 57 52 50 47 46 48 51 53 54 56 57 59 60 60 62 63 64 65 67 69 72 76 80 82 85 88 91 93 96 98 103 106 108 112 114 116 115 117
58 51 51 51 54 56 58 55 53 51 53 51 52 57 58 59 61 62 63 65 66 67 68 70 72 75 78 82 84 86 89 92 93 96 98 103 107 110 112 115 117 116 119 118
53 53 52 54 55 58 60 58 53 52 53 50 50 54 60 62 64 65 66 68 70 70 73 75 76 80 83 85 86 89 91 94 96 99 104 107 110 110 113 114 116 121 121 121
57 56 56 57 60 63 65 62 60 56 53 47 45 50 57 66 68 69 70 70 71 74 76 78 81 84 86 87 89 92 94 98 101 105 108 111 111 110 108 112 118 119 120 119
56 58 58 62 68 66 60 64 68 63 62 56 57 63 63 61 66 72 74 76 77 79 80 82 85 87 89 92 95 98 99 102 106 108 110 110 111 111 114 114 110 110 115 115
58 58 60 66 70 66 66 68 69 68 68 65 67 72 72 68 66 70 74 78 81 84 87 89 92 92 95 97 98 100 104 106 109 109 108 110 112 114 116 114 113 110 108 108
60 59 62 68 68 69 68 67 65 68 70 65 68 78 75 71 69 71 75 79 83 86 89 91 91 92 93 96 100 103 107 107 106 108 109 113 114 115 113 112 111 110 106 99
56 62 64 68 70 68 67 67 72 76 75 76 81 82 78 74 73 73 75 78 81 83 84 86 89 93 97 100 103 104 104 106 107 110 112 113 113 111 111 109 108 104 99 95
66 67 69 72 74 74 77 80 82 84 87 85 86 85 80 74 75 78 79 81 82 85 87 90 93 95 99 100 101 103 105 107 110 111 112 112 111 110 109 107 102 97 95 91
68 70 72 76 80 81 84 87 87 87 86 86 84 80 74 76 78 78 77 78 81 85 88 91 95 97 98 101 103 105 108 109 111 112 111 110 109 108 105 101 97 94 90 86
70 72 74 75 78 78 79 78 76 75 75 74 73 76 80 78 75 75 78 81 84 87 91 94 96 100 101 103 106 109 109 112 112 111 110 108 107 105 101 97 93 89 85 82
74 74 75 77 79 76 76 71 71 71 72 74 77 78 77 77 79 81 83 84 89 94 95 97 100 102 105 107 108 111 111 111 111 109 108 107 105 100 97 92 88 84 81 76
76 76 79 79 73 69 70 70 71 72 73 75 76 78 78 80 82 85 88 92 95 98 99 101 105 107 109 110 111 111 111 110 108 107 106 103 99 96 92 87 83 80 76 72
75 78 82 78 77 75 73 72 73 75 76 77 80 82 84 87 90 91 93 96 98 101 104 107 109 109 110 110 110 109 108 106 105 104 101 98 94 90 86 82 79 76 73 69
75 78 77 76 76 76 78 79 79 80 82 85 86 87 89 91 93 95 97 100 104 106 108 109 109 109 108 108 107 106 105 103 102 98 95 91 88 84 80 77 75 71 67 64
71 73 76 77 80 82 82 83 83 84 85 86 89 92 93 95 98 101 104 106 107 107 108 108 107 105 105 105 105 104 102 98 95 91 89 86 82 79 75 71 68 65 63 59
72 74 76 78 80 82 84 84 86 88 90 93 94 96 98 101 104 106 106 106 106 104 102 103 103 103 103 103 102 99 96 92 89 86 84 80 77 73 70 66 64 62 59 56
72 74 77 79 81 83 86 88 90 93 94 97 99 101 103 103 103 102 102 101 100 100 101 101 100 100 99 97 94 91 88 86 84 81 78 74 71 69 66 63 60 57 55 52

GFSNGP_250_spd_069.txt.gz
Wind_Speed
36 37 36 28 27 26 26 28 24 28 35 42 37 31 31 30 32 37 40 39 38 39 38 39 38 37 34 37 43 48 52 53 55 57 59 61 63 72 73 76 81 84 85 87
36 37 34 30 31 28 28 30 31 30 30 35 40 36 34 34 33 36 37 36 35 36 37 38 36 33 37 43 49 51 53 55 58 60 63 65 69 75 79 82 84 86 88 90
35 35 32 33 33 32 32 33 31 30 33 35 39 39 39 37 37 37 35 36 35 35 36 38 38 41 43 47 50 53 56 58 61 64 67 71 74 77 79 84 87 89 89 91
35 34 32 38 36 36 34 36 36 34 33 33 34 41 42 43 43 40 37 37 37 37 39 42 44 47 49 51 54 57 60 62 65 68 71 73 77 80 82 85 86 88 91 94
34 33 33 37 42 38 38 41 39 36 35 36 36 37 46 46 46 46 42 41 41 40 42 45 47 50 52 55 58 60 62 64 67 71 74 76 78 81 83 86 88 92 96 99
38 38 34 40 41 42 40 43 45 42 40 39 40 40 41 48 49 48 48 48 48 48 48 49 51 54 56 57 60 62 65 68 71 73 75 78 81 83 87 89 93 95 97 102
42 41 37 40 45 47 42 44 47 48 47 44 43 43 41 44 50 52 51 51 54 55 56 56 57 58 59 60 62 65 68 71 73 75 79 81 84 87 90 92 94 96 99 104
49 44 39 46 46 46 48 48 50 49 50 48 43 46 45 42 44 51 55 55 55 57 59 62 62 63 65 66 68 71 73 76 78 81 84 86 88 91 92 94 97 101 104 106
54 49 49 49 49 49 51 52 52 51 53 52 47 48 46 43 42 45 52 58 59 59 62 66 67 69 71 73 75 77 80 81 83 86 88 90 92 94 95 99 103 105 108 111
57 56 56 53 51 54 55 53 52 53 56 56 54 52 50 47 43 44 45 49 57 63 65 66 68 71 74 77 79 81 83 86 88 90 91 93 95 96 100 104 106 109 113 113
60 58 61 58 58 58 55 55 55 55 56 59 58 57 58 55 47 47 48 45 47 50 57 65 73 76 79 81 83 86 88 89 91 93 95 98 99 102 105 106 110 112 113 114
57 62 60 55 61 58 59 58 57 57 56 58 60 66 66 65 61 57 59 61 61 61 64 65 69 73 78 82 86 89 91 94 96 97 97 99 100 102 105 109 110 112 115 117
57 56 58 59 60 62 62 61 61 61 61 58 61 70 67 71 64 55 62 67 69 72 73 69 69 71 74 77 80 83 87 89 91 93 94 96 99 103 105 109 113 117 118 120
55 56 61 64 63 62 61 62 65 64 60 60 66 70 74 72 64 63 67 72 76 73 72 73 69 69 71 75 79 83 85 87 90 91 94 97 99 102 106 109 112 115 118 116
57 61 63 62 62 63 65 66 66 64 64 65 70 75 76 77 74 71 77 84 78 75 75 73 70 72 77 81 83 84 85 86 88 92 95 98 102 106 109 109 112 113 112 111
64 62 64 64 65 65 66 65 66 67 68 70 73 77 78 77 76 80 81 80 78 77 76 73 74 79 81 81 80 81 84 88 92 96 101 105 106 109 111 112 112 110 106 103
62 63 66 66 63 62 62 66 65 68 73 74 76 78 77 77 79 84 85 82 78 75 74 75 80 81 81 83 85 87 91 95 98 102 107 109 110 112 113 111 109 107 103 100
67 66 64 64 65 66 68 69 71 76 79 82 82 83 84 87 90 91 85 81 79 79 80 81 82 84 85 87 91 95 99 102 105 108 110 112 113 113 110 108 106 103 101 98
66 66 67 67 68 69 72 73 76 80 82 84 86 83 84 85 84 82 82 83 83 83 83 85 87 89 92 95 98 102 105 107 109 111 112 113 112 110 108 105 103 100 97 95
68 69 69 70 71 73 74 76 79 81 83 86 87 86 87 88 85 82 83 83 84 86 88 91 94 97 100 102 104 107 109 111 113 113 113 111 109 106 104 103 100 97 94 91
71 72 73 74 74 76 79 81 81 83 88 86 89 90 92 92 92 89 88 88 90 93 96 99 101 102 104 107 109 110 112 112 112 111 109 107 105 104 102 99 97 93 89 85
70 72 74 75 78 80 82 82 84 88 90 91 91 91 93 91 90 91 93 95 97 100 101 102 105 109 108 109 111 112 112 110 108 106 105 105 103 101 98 95 91 87 84 80
74 76 78 79 81 81 81 83 86 89 88 87 87 87 89 91 93 95 98 99 101 103 104 105 107 108 110 111 111 109 107 107 106 105 103 101 99 95 92 89 85 83 80 76
73 74 76 79 82 83 84 86 84 83 84 85 87 90 93 95 97 99 100 101 103 104 106 108 109 109 110 108 108 108 106 104 102 100 99 96 92 90 86 84 81 78 75 72
70 73 77 80 82 80 79 81 82 83 84 86 88 90 92 94 96 98 100 102 104 106 106 107 107 107 106 106 105 103 102 99 97 95 93 90 87 84 81 79 76 74 71 67
75 75 76 75 76 77 78 79 81 83 84 86 88 90 93 95 98 100 102 103 103 104 104 104 104 103 102 101 99 97 95 93 91 89 87 84 82 79 77 74 71 68 64 61
74 73 73 75 77 79 81 82 84 86 87 89 92 94 96 98 100 100 101 101 101 101 101 99 98 97 95 93 91 90 88 87 85 83 81 78 76 74 72 69 65 62 59 56

GFSNGP_250_spd_072.txt.gz
Wind_Speed
34 31 30 28 29 26 25 24 23 24 23 23 20 21 28 32 35 37 37 39 39 39 42 44 44 41 41 44 39 37 40 44 52 55 55 58 63 66 69 74 77 77 81 84
36 34 36 29 31 28 26 26 26 27 27 26 23 22 21 26 34 38 38 41 42 42 43 44 44 42 40 40 38 39 45 50 54 57 59 62 66 70 74 75 78 82 84 87
39 40 38 31 33 30 27 28 28 29 30 29 29 27 27 27 29 35 39 41 44 46 47 47 46 44 40 43 43 47 49 53 56 60 63 66 68 71 74 76 80 83 86 89
41 40 33 37 33 31 29 31 30 31 32 32 32 32 32 31 32 33 39 43 45 48 50 50 49 48 47 49 51 54 55 57 60 63 66 68 70 73 76 79 82 86 89 92
41 38 34 37 38 31 31 37 35 33 35 36 37 37 35 37 35 37 37 40 50 52 52 53 53 53 53 54 55 57 59 61 64 67 69 72 74 77 79 83 85 88 92 95
40 36 32 46 39 35 33 40 36 38 38 40 42 43 41 39 38 39 41 42 44 48 55 56 56 56 57 58 60 62 64 67 70 72 74 76 79 81 84 87 90 94 97 100
40 36 36 45 42 40 36 45 39 41 44 45 47 46 48 48 44 41 44 47 47 47 48 51 58 60 60 61 63 65 69 72 75 77 79 82 84 87 90 93 97 98 101 103
40 38 37 50 47 42 43 43 45 48 48 50 52 50 50 51 52 47 46 46 48 48 42 46 49 54 60 63 65 67 70 74 77 80 83 87 89 92 95 96 98 100 102 105
44 42 45 48 49 47 47 48 48 49 51 54 54 54 54 57 57 55 52 49 52 44 39 42 51 47 47 53 56 60 66 74 79 84 87 90 93 95 98 100 100 100 99 99
48 47 50 52 54 53 52 53 52 54 57 57 54 56 58 59 59 59 58 54 56 57 51 49 50 53 60 65 66 70 73 72 73 77 82 86 88 89 90 90 92 94 96 98
50 53 57 57 58 56 56 56 54 56 59 59 57 60 60 61 61 62 65 61 63 66 67 63 63 65 67 67 69 72 73 74 73 73 74 76 78 82 86 89 92 94 95 98
56 60 61 59 58 57 58 57 55 57 60 60 61 62 62 60 62 65 62 63 67 70 73 72 74 74 73 73 74 73 72 73 72 72 73 78 82 85 88 89 91 94 98 101
59 61 62 62 61 60 59 59 57 58 60 62 63 64 62 65 64 65 66 67 71 74 75 74 74 72 74 74 70 69 69 70 71 73 79 82 84 87 90 93 97 100 103 107
63 63 62 62 62 62 60 58 58 60 62 64 66 62 66 68 69 71 72 71 73 76 78 78 77 71 73 73 71 71 72 73 76 79 81 84 87 91 94 98 102 106 109 113
64 65 65 64 63 62 61 60 62 63 66 66 64 68 69 69 71 74 74 77 80 83 84 79 77 77 81 79 78 79 79 80 82 84 86 90 94 97 100 104 108 111 114 115
65 63 62 62 62 63 62 62 64 66 67 67 67 67 68 72 75 75 77 81 84 84 87 90 91 92 91 91 90 89 87 88 88 90 94 97 100 103 106 110 114 114 114 112
64 64 64 65 65 66 66 66 67 68 68 69 69 72 74 77 80 82 84 86 86 88 94 93 94 96 95 97 96 94 92 92 95 98 102 105 106 109 114 113 114 113 111 108
66 65 66 68 68 69 70 68 67 68 69 72 73 76 78 80 84 81 84 89 92 94 96 98 98 94 96 95 94 96 97 100 103 105 108 111 113 113 114 113 112 110 109 107
67 68 67 67 67 68 69 70 71 72 74 76 77 78 80 83 86 90 92 95 95 96 99 97 95 95 94 96 99 101 103 106 109 111 113 113 113 113 112 111 109 107 105 102
67 67 68 70 71 73 74 74 75 76 77 80 82 84 87 88 92 94 95 94 95 99 99 96 95 96 99 101 103 106 109 112 112 112 113 113 112 111 110 109 107 104 101 98
64 66 68 71 73 74 76 76 78 80 83 85 86 89 92 93 95 94 95 96 97 95 95 96 98 100 103 106 107 109 109 111 112 112 112 110 110 110 108 106 103 100 96 92
66 67 69 71 73 74 76 78 81 84 86 87 90 92 94 93 93 94 95 94 94 96 98 99 100 102 104 106 108 110 111 111 111 110 109 110 109 106 104 101 98 94 90 86
66 68 69 71 74 77 79 82 84 86 87 88 89 89 90 92 94 92 93 95 98 99 100 101 102 105 107 109 110 110 109 109 108 109 107 105 103 100 97 94 90 87 84 80
67 68 71 74 76 77 78 78 79 81 83 86 88 90 93 94 91 91 95 98 98 100 102 104 106 107 108 108 108 107 107 107 105 103 102 100 96 93 90 87 84 80 78 75
67 68 66 65 69 73 75 79 82 84 86 88 90 91 90 91 94 97 98 99 101 102 104 106 106 105 106 105 105 105 102 100 99 96 94 90 88 85 83 80 78 75 71 68
64 66 71 76 79 82 83 83 84 85 85 85 87 90 93 95 97 99 100 101 103 104 103 102 103 103 102 101 99 97 96 93 90 88 86 83 81 79 76 74 71 68 66 64
72 75 79 84 85 84 81 79 79 82 85 88 92 94 95 96 98 100 101 100 100 101 102 101 99 97 95 94 92 90 88 86 84 82 79 77 74 71 70 68 66 64 61 58

GFSNGP_250_spd_075.txt.gz
Wind_Speed
44 40 34 31 30 30 28 27 27 23 21 20 21 20 21 21 22 24 30 37 39 40 40 41 43 43 43 44 44 45 44 48 49 50 49 51 54 57 60 64 68 71 75 79
46 43 38 34 33 34 32 30 29 29 25 22 22 22 22 23 24 25 25 25 31 38 40 42 43 45 46 46 46 47 46 46 47 51 52 50 56 60 65 68 72 76 80 83
45 46 41 33 38 36 34 34 31 32 29 26 27 25 25 28 29 28 30 30 28 28 34 42 45 47 50 50 51 51 49 47 51 54 57 59 61 64 67 71 74 78 81 84
48 45 38 39 41 39 38 36 33 34 31 33 32 30 33 35 36 35 34 37 36 35 35 36 36 42 51 53 53 55 55 56 57 59 62 65 67 69 72 76 80 83 86 88
47 44 43 43 44 44 40 38 40 33 34 38 35 36 37 39 44 43 43 43 41 40 42 43 42 41 43 45 51 55 57 58 61 63 66 70 72 74 77 80 83 86 89 92
50 45 43 45 50 48 43 41 40 34 37 38 38 40 41 45 48 48 49 49 50 48 46 47 47 46 46 48 46 50 56 58 60 62 65 66 68 71 76 80 83 87 91 94
50 48 47 48 53 52 44 51 36 38 36 39 41 42 45 47 50 53 51 53 55 55 55 53 51 51 44 47 45 45 46 48 54 57 61 66 71 72 76 80 84 88 93 95
51 48 45 51 56 52 52 46 42 41 40 42 44 46 47 53 54 55 54 55 58 58 58 59 58 58 56 54 51 50 55 59 62 68 72 75 76 81 84 86 87 89 92 92
54 50 50 49 53 53 53 48 44 43 45 47 49 49 50 54 58 59 61 61 60 60 60 61 62 62 61 62 63 64 63 62 67 71 72 75 78 82 83 83 85 86 84 83
56 51 50 52 53 52 53 47 45 49 50 51 52 52 52 55 60 63 66 66 63 62 62 64 62 63 65 68 68 69 69 71 70 72 71 72 73 75 76 77 77 77 80 85
55 54 55 50 56 56 53 51 52 54 53 54 55 56 55 57 59 63 67 68 67 67 64 65 66 68 70 73 73 75 79 79 77 77 70 72 74 74 74 77 80 82 85 88
58 60 57 57 58 56 58 57 56 57 57 57 58 60 59 60 61 64 67 70 71 68 66 68 71 73 75 78 79 81 83 83 81 77 77 81 81 82 82 83 85 88 91 94
61 61 62 62 62 62 62 60 57 60 61 61 61 62 62 62 63 65 65 68 68 68 69 71 73 77 81 81 80 83 84 85 86 89 93 88 87 88 88 89 92 93 96 98
65 66 65 64 63 64 63 62 61 61 63 65 66 63 62 62 65 67 69 72 70 72 73 75 78 82 84 85 86 83 90 95 96 99 98 95 94 94 93 95 95 95 98 104
67 66 65 66 65 65 65 65 63 64 67 66 66 67 67 68 69 70 72 74 75 76 78 81 83 86 89 85 87 93 100 101 100 102 99 96 96 98 99 100 102 104 107 109
69 71 68 67 68 68 68 67 65 68 67 68 69 70 71 71 71 73 73 75 77 80 84 86 89 91 87 88 96 102 103 103 103 99 98 100 101 103 103 105 107 109 112 113
70 69 69 68 69 68 68 66 68 68 69 72 74 75 75 75 76 76 77 80 83 86 87 91 90 91 94 101 105 105 105 105 101 101 103 104 105 106 108 110 113 115 115 113
69 69 68 68 69 67 66 70 70 71 74 76 78 78 79 79 79 81 82 83 87 89 91 93 97 99 104 106 106 105 104 102 103 105 107 108 109 110 113 115 116 116 115 112
69 69 69 69 69 70 72 73 74 76 78 79 80 78 78 80 83 85 85 89 91 93 96 100 103 105 106 106 104 104 103 103 105 108 110 111 112 114 115 116 116 114 112 110
72 72 72 73 73 74 75 77 78 79 79 80 80 80 82 84 86 89 92 95 96 98 101 103 105 105 104 104 105 104 104 107 111 111 112 114 115 116 117 115 113 111 108 104
76 76 76 77 78 78 79 80 79 79 79 80 81 83 85 88 91 93 95 97 100 101 103 104 104 104 105 105 104 106 109 111 112 113 115 116 116 115 112 109 107 104 102 99
79 79 79 80 82 80 78 78 79 80 81 83 84 85 87 89 92 95 96 97 99 101 101 102 103 103 103 105 107 109 110 112 114 115 114 112 110 107 106 103 100 98 96 93
80 79 79 78 76 76 77 78 80 82 84 85 86 87 88 91 91 91 95 98 98 99 100 101 102 105 107 108 109 111 113 113 112 111 109 105 103 101 98 96 94 91 88 85
73 73 73 74 76 77 80 82 83 83 85 87 90 90 90 91 94 95 97 98 97 98 101 104 106 107 108 110 111 111 110 109 107 103 102 99 97 96 93 89 86 84 82 79
70 74 78 79 82 82 83 84 84 85 86 86 84 88 91 93 95 96 97 99 101 103 103 106 107 108 108 109 108 107 104 101 99 97 96 94 91 88 85 82 80 78 75 72
74 76 77 78 79 80 82 83 82 81 82 85 88 90 94 95 96 98 99 100 102 103 105 105 105 107 106 103 100 97 96 94 92 91 88 86 83 81 78 76 73 71 68 65
72 75 76 76 74 75 77 79 82 84 85 88 91 92 95 97 98 99 100 101 102 103 105 104 102 99 96 95 94 91 89 87 86 84 82 80 77 74 72 69 66 64 62 60

GFSNGP_250_spd_078.txt.gz
Wind_Speed
50 46 42 41 39 36 33 33 28 25 27 27 25 25 21 20 20 21 22 23 25 24 25 29 33 38 42 42 43 40 44 40 43 48 54 56 57 56 54 52 52 58 62 66
52 49 46 44 40 38 36 34 33 29 30 30 30 28 26 24 22 24 24 24 26 26 25 27 29 30 31 34 38 42 41 46 51 56 58 61 61 60 60 61 62 64 68 70
55 52 49 41 38 41 40 38 36 34 33 33 35 32 31 27 24 26 30 32 30 31 31 28 33 33 34 35 35 39 40 44 51 55 58 58 60 62 63 66 69 72 75 78
64 61 48 45 44 44 42 40 38 37 37 39 38 35 35 32 30 32 36 35 38 39 41 46 39 38 37 38 40 42 45 46 47 48 50 54 57 61 64 67 69 72 75 77
64 63 57 50 48 47 47 43 42 42 42 42 42 41 39 34 36 35 38 43 43 43 44 47 49 50 49 49 48 46 44 44 44 46 47 49 51 56 60 64 68 73 78 83
68 65 57 52 52 50 49 40 49 45 43 47 47 44 42 38 39 38 40 45 48 48 50 54 55 55 53 53 54 53 53 50 49 48 50 52 54 56 62 67 72 76 80 82
71 66 60 55 56 54 46 48 51 47 47 50 47 44 43 42 43 44 45 46 50 52 54 58 59 61 61 58 58 57 57 56 56 58 61 62 63 68 72 70 72 75 79 77
74 70 60 59 59 56 54 55 51 49 50 49 47 48 45 45 46 47 49 51 52 53 58 60 63 65 66 67 65 62 61 62 63 64 66 70 72 72 74 74 79 79 79 79
71 68 65 64 60 59 58 55 56 53 52 49 52 49 48 50 50 52 52 55 56 56 59 63 64 65 68 70 70 66 65 66 67 70 74 76 77 77 77 80 81 82 84 89
72 68 64 62 62 61 59 59 57 54 53 51 51 49 51 55 55 54 57 59 59 59 61 63 64 66 68 68 68 68 68 69 71 74 78 80 81 81 83 85 87 91 92 96
72 70 67 65 65 61 58 55 56 56 55 54 52 53 56 58 60 58 61 62 63 63 64 65 67 67 69 71 71 72 73 74 78 80 82 85 84 85 88 90 96 98 99 98
69 70 68 66 65 62 59 58 57 56 57 57 56 58 61 62 62 65 65 65 67 67 67 67 70 71 72 74 74 75 76 78 82 84 86 88 90 92 94 97 100 101 102 99
71 70 67 65 65 59 58 59 59 60 59 60 61 62 65 64 66 68 68 71 69 69 71 71 74 76 76 77 77 78 80 81 85 88 93 96 96 99 100 104 104 106 104 102
66 65 68 68 62 62 61 62 63 63 62 62 63 66 68 67 70 71 72 74 76 74 76 78 80 79 81 82 82 83 83 86 89 93 99 101 102 105 107 107 107 107 106 106
67 67 63 63 64 63 62 62 63 65 66 67 70 71 72 74 75 74 77 79 77 78 81 83 84 84 85 87 86 89 93 95 98 101 103 104 109 109 111 111 112 111 110 109
66 64 65 63 62 63 64 64 65 67 70 73 74 74 74 77 79 79 81 82 80 83 85 87 88 86 85 87 92 93 96 100 103 107 107 111 112 115 115 115 113 112 115 116
73 70 70 69 67 66 67 68 69 72 74 74 76 77 79 81 79 83 86 84 85 87 88 88 86 87 90 92 95 98 101 105 109 109 111 115 117 116 116 115 114 118 118 117
76 75 73 71 70 70 73 73 74 76 77 78 78 79 80 80 84 86 87 89 90 89 88 85 88 93 96 99 100 102 106 108 108 113 117 119 117 115 115 117 120 119 118 116
74 72 69 69 68 67 69 72 74 76 76 77 79 80 82 84 87 89 91 91 89 89 89 94 96 98 99 100 103 106 106 108 115 117 114 113 114 117 120 120 118 117 116 115
67 66 67 68 68 70 72 73 74 76 80 80 83 85 87 89 90 91 91 92 92 93 95 97 99 101 104 105 107 108 111 115 115 114 114 116 119 119 117 116 116 115 114 110
68 68 69 70 72 74 76 78 79 81 85 87 88 89 90 92 95 94 93 94 94 96 99 100 102 104 106 107 108 112 113 112 114 115 116 117 117 115 115 114 112 109 105 103
68 69 70 72 74 75 77 79 81 83 86 88 91 93 95 97 94 95 95 96 99 101 102 103 104 105 107 110 111 112 112 113 114 115 114 114 113 112 111 108 104 102 99 96
72 73 75 76 79 81 83 85 86 89 91 94 95 95 96 95 95 97 99 100 101 101 103 104 105 108 110 111 111 112 113 114 113 112 112 110 108 105 102 101 98 95 92 89
76 78 80 81 83 85 86 87 88 89 90 90 91 91 93 96 97 98 98 99 100 100 102 105 107 109 109 110 111 111 112 111 110 108 106 103 101 99 97 94 90 88 85 82
76 77 78 78 79 80 82 82 83 83 87 88 90 92 93 95 95 96 99 100 101 101 102 105 107 108 110 111 110 109 108 106 103 101 99 97 95 92 88 85 83 80 78 75
70 72 75 78 79 80 83 85 83 85 88 89 91 92 92 92 94 97 98 99 100 103 104 104 106 108 109 108 107 104 101 98 96 95 92 89 87 84 81 79 76 74 71 68
76 76 75 74 76 78 81 84 85 86 87 87 86 89 92 95 96 96 97 100 102 103 106 107 107 105 103 101 99 97 96 93 90 87 85 82 80 77 75 73 70 66 64 61

GFSNGP_250_spd_081.txt.gz
Wind_Speed
61 57 49 50 51 45 38 38 32 36 30 28 23 22 23 25 25 22 20 18 15 14 18 20 21 19 22 25 26 29 32 34 35 38 36 50 56 66 68 72 71 72 69 68
66 58 49 52 49 47 41 38 35 39 34 31 28 25 26 28 26 28 25 19 21 19 16 25 26 20 19 23 22 25 32 36 39 41 47 53 64 71 70 66 68 65 63 64
66 60 55 50 44 44 44 41 39 37 39 33 31 28 30 33 34 30 26 29 30 27 28 27 31 29 30 32 32 33 30 33 39 43 44 47 49 50 50 46 49 53 55 57
64 65 58 46 46 48 47 43 41 38 39 35 34 34 34 35 39 35 32 32 30 31 34 34 33 36 36 38 39 41 43 47 48 48 49 49 47 48 48 50 52 54 57 63
66 62 57 47 44 49 48 46 46 42 39 38 39 40 40 41 42 42 38 36 34 35 38 40 40 41 44 46 49 51 52 53 53 54 56 55 55 54 53 54 56 59 62 66
63 65 54 54 51 58 54 49 49 47 43 40 39 41 43 47 44 46 43 39 39 40 41 43 44 46 48 51 54 55 57 58 60 61 60 60 59 59 60 61 64 67 69 71
63 65 63 62 53 54 55 54 57 51 46 44 42 43 46 49 47 49 47 45 43 45 48 49 49 51 53 56 59 61 61 62 62 63 64 63 63 65 67 68 71 74 75 73
66 61 61 60 57 56 58 60 61 53 49 46 45 47 49 50 51 53 53 51 47 50 54 52 54 56 58 61 62 63 63 63 65 67 67 68 69 69 71 72 76 78 79 81
67 62 64 60 63 62 64 65 62 56 52 53 52 52 53 54 54 56 56 51 51 54 57 58 59 62 64 66 66 65 65 66 69 70 71 72 73 74 75 77 78 80 84 85
74 64 65 63 62 62 66 64 61 57 56 54 55 56 58 57 56 56 58 56 58 59 59 61 64 67 69 70 69 70 70 72 74 75 76 75 77 79 78 78 81 87 88 91
83 76 69 64 62 65 64 66 63 61 61 59 57 58 58 59 58 58 60 62 62 63 64 67 69 72 72 73 73 76 75 77 80 80 80 82 82 80 81 84 88 88 93 99
85 80 77 72 65 64 67 66 65 64 62 60 59 60 58 57 59 60 62 63 66 67 70 72 74 76 77 77 77 79 82 83 85 86 88 85 85 85 88 91 92 96 101 104
82 83 81 79 76 71 68 68 67 65 64 63 62 61 62 60 60 61 63 64 65 69 75 79 81 81 82 80 82 85 87 89 90 91 89 89 89 93 95 96 100 104 107 107
78 80 77 76 76 74 72 69 67 67 66 66 64 63 62 63 63 64 66 68 70 76 79 81 82 83 84 84 89 90 92 93 94 92 91 94 98 99 100 103 108 111 111 113
74 70 73 72 72 73 72 71 68 68 66 66 66 67 66 66 66 67 69 71 77 79 81 83 82 86 85 90 93 95 98 97 95 94 96 99 101 104 106 110 111 113 115 118
75 69 66 66 66 66 67 68 68 68 68 69 68 68 68 70 72 73 74 75 79 83 84 82 87 88 90 96 99 101 101 97 96 98 100 103 104 107 111 114 115 117 120 122
65 63 66 66 63 63 63 64 65 66 67 68 69 71 71 73 74 75 77 81 85 86 85 88 90 93 98 102 103 105 100 98 98 100 104 107 109 112 114 116 119 122 123 125
65 61 62 65 65 64 64 65 67 70 71 73 73 74 76 79 82 83 82 84 85 87 90 93 97 101 102 104 104 103 102 103 104 106 108 110 112 115 117 119 122 123 124 124
73 68 66 64 63 64 67 70 72 73 74 75 78 81 82 83 82 82 85 86 88 92 95 99 101 103 106 107 106 104 105 107 108 110 110 112 115 117 120 121 122 122 120 116
78 75 72 70 68 69 71 72 74 77 79 79 82 83 83 83 83 86 89 92 94 96 98 103 106 107 107 105 105 107 109 110 110 111 113 115 117 119 121 121 119 114 112 109
79 77 77 78 79 80 81 81 80 81 83 81 80 81 83 85 87 88 90 94 97 101 104 107 106 104 103 107 108 108 108 110 112 114 116 116 119 119 118 113 110 108 105 102
68 69 70 72 74 77 78 78 78 77 77 79 80 82 85 88 91 94 97 101 103 105 104 103 103 105 107 106 107 109 110 112 113 114 117 118 116 112 108 106 103 100 98 96
63 65 67 70 72 73 75 76 77 79 80 80 82 85 88 92 96 98 99 100 100 101 102 104 107 106 105 107 108 110 111 112 115 117 115 112 108 105 101 98 96 94 93 91
63 65 67 69 72 74 75 76 78 81 82 83 87 91 94 95 95 95 98 98 101 102 105 106 104 105 107 108 110 111 113 114 113 111 107 102 99 96 94 92 91 89 87 84
67 68 70 72 74 75 75 77 80 83 86 89 90 89 90 92 95 97 98 98 100 101 101 103 105 107 108 109 110 112 110 108 104 100 98 95 93 92 90 87 85 82 79 76
69 71 72 73 76 79 81 83 85 86 86 87 88 91 93 93 94 96 96 97 98 100 101 103 105 106 108 110 109 107 104 100 97 95 93 91 89 87 84 81 78 75 73 71
74 76 79 80 79 81 81 82 81 83 87 88 86 87 90 90 90 92 96 99 100 101 103 104 104 106 105 103 100 97 95 93 91 90 87 85 83 80 77 74 71 69 67 65

GFSNGP_250_spd_084.txt.gz
Wind_Speed
57 59 59 59 55 63 58 47 37 42 35 31 30 27 24 18 15 15 14 16 18 18 13 11 11 12 17 20 17 20 20 22 24 26 23 25 25 44 50 61 64 66 73 77
53 58 60 55 57 63 59 49 38 45 37 34 29 29 27 25 22 21 17 18 16 21 25 29 24 17 16 16 20 23 21 26 30 36 40 44 49 48 55 65 73 75 76 73
59 59 63 61 60 62 58 49 40 44 41 39 30 28 30 28 27 27 25 24 21 22 27 31 34 30 27 27 28 24 27 27 32 36 36 37 39 42 45 50 53 57 60 62
64 64 66 53 65 65 58 53 46 46 42 43 38 35 30 29 31 32 30 31 30 26 28 31 34 37 37 34 33 32 32 39 44 45 48 50 52 51 53 55 56 57 58 59
65 65 61 64 69 67 60 53 45 42 41 41 42 38 34 34 37 34 33 34 36 34 34 35 36 38 40 41 40 41 43 46 49 51 52 54 55 56 58 58 60 61 62 62
66 65 59 66 67 66 62 54 48 45 40 41 43 40 42 42 39 39 34 37 40 40 42 42 42 44 44 46 48 48 50 51 54 56 57 58 58 59 61 63 65 66 67 69
66 66 62 70 70 71 64 53 53 47 45 46 44 43 42 41 39 41 42 42 44 46 47 48 48 48 49 52 54 54 55 57 60 62 65 64 64 64 69 69 71 70 72 73
71 68 64 71 73 71 64 59 58 50 47 44 45 46 44 45 46 45 46 49 50 50 52 53 53 53 55 57 58 59 61 63 65 68 69 71 69 71 75 75 77 77 78 78
73 67 74 74 72 70 68 64 60 55 51 50 49 51 54 51 50 50 51 52 54 56 56 57 58 58 60 61 62 64 65 66 70 75 75 74 75 76 80 82 84 84 84 82
69 70 75 72 71 68 67 69 66 63 54 52 54 55 55 56 55 53 53 55 57 59 60 60 61 62 63 64 66 67 68 71 76 79 76 78 80 81 86 88 90 90 88 86
73 77 74 70 68 67 70 71 67 67 63 57 54 55 56 55 54 54 55 57 60 62 62 63 64 66 65 67 69 70 74 77 79 81 80 82 83 86 91 93 96 95 91 90
76 83 75 71 64 67 68 68 69 67 63 58 61 62 59 57 55 57 59 62 64 65 65 65 65 66 69 69 72 76 79 82 82 85 81 87 87 92 97 98 103 99 95 96
77 82 81 76 68 65 66 65 63 65 65 65 63 64 65 61 62 63 64 64 65 67 67 67 67 67 68 71 76 79 81 84 87 84 90 92 95 99 101 105 105 100 101 102
76 80 80 78 72 69 68 68 70 71 69 69 68 67 70 69 69 68 68 67 68 68 69 69 70 71 73 77 79 82 86 87 87 91 94 97 101 104 109 108 106 103 104 104
78 82 80 81 77 71 68 68 69 70 69 68 68 69 69 71 73 72 69 69 70 72 72 73 75 77 78 81 86 88 88 91 92 96 100 103 107 111 109 108 106 107 107 109
77 81 79 82 81 79 76 71 68 68 69 70 73 73 73 73 74 71 71 72 73 74 75 78 80 82 86 91 90 91 93 95 99 102 106 110 112 111 108 108 109 108 110 113
74 73 72 73 76 78 80 79 76 72 72 72 70 68 68 69 70 72 73 75 76 79 82 82 86 90 92 92 92 94 98 101 103 107 112 114 112 108 110 112 111 112 113 115
74 72 74 74 77 80 76 74 75 76 75 74 75 75 73 72 72 73 75 78 81 84 85 89 93 95 94 95 97 100 102 105 110 113 113 110 110 111 113 113 112 114 117 117
71 70 71 72 72 71 70 72 73 73 72 71 70 70 70 71 73 76 80 83 85 88 91 93 94 95 96 98 101 104 107 112 112 110 110 112 113 114 113 114 115 116 117 120
72 69 67 65 63 64 64 65 66 67 68 68 70 71 72 75 78 81 83 86 90 92 94 94 96 98 100 103 106 109 110 109 109 111 113 113 113 112 114 115 116 118 118 116
76 70 67 68 66 64 63 63 64 65 67 69 71 73 75 79 82 86 90 93 93 96 96 98 100 102 105 107 109 107 108 110 111 111 111 111 113 115 115 116 116 114 110 106
69 71 67 66 68 70 70 70 70 72 73 74 77 80 83 86 88 89 90 93 95 97 99 101 103 106 106 107 108 109 110 111 110 110 112 113 114 114 114 111 107 104 101 98
58 61 65 68 69 71 72 74 76 77 79 79 80 82 85 86 88 90 93 95 97 100 101 102 103 104 106 109 108 108 109 109 111 111 112 112 112 109 105 102 99 95 92 89
49 52 56 60 62 65 68 71 74 76 79 81 82 84 85 86 88 91 95 97 97 99 101 102 103 106 107 107 108 107 109 109 111 110 110 107 102 99 96 93 90 87 84 82
49 51 54 57 60 63 66 68 70 72 74 76 79 83 86 89 90 91 93 95 98 99 100 103 104 104 106 106 107 108 109 109 107 105 99 96 93 90 88 86 83 82 80 79
49 52 56 58 61 64 66 69 73 76 78 80 82 84 86 87 89 91 94 94 97 101 100 102 103 104 105 106 107 107 105 102 98 94 91 88 86 85 83 81 79 78 75 72
54 57 61 63 65 68 70 73 75 75 78 81 84 86 86 89 90 93 95 95 95 98 98 100 101 103 104 104 103 99 95 92 89 86 85 84 82 80 78 76 74 71 68 66

GFSNGP_250_spd_087.txt.gz
Wind_Speed
72 77 80 81 77 75 70 61 54 47 57 53 46 33 26 28 29 28 20 17 14 13 18 21 19 17 17 17 15 17 18 20 22 24 23 26 29 29 27 29 38 47 52 61
65 66 67 71 68 65 63 57 52 51 56 57 49 37 29 28 31 32 29 25 21 14 19 20 22 22 21 23 23 22 22 23 21 23 19 25 26 24 24 28 40 51 63 70
60 66 67 66 48 55 58 56 51 55 59 58 51 42 30 27 27 34 32 30 28 24 22 24 24 24 24 25 26 27 28 30 28 27 29 35 35 36 38 41 42 45 48 51
60 69 69 45 53 53 55 55 53 60 64 61 56 48 36 33 28 31 30 33 32 33 31 29 28 27 28 30 32 34 35 33 35 37 40 41 43 45 48 50 54 55 54 55
60 65 57 53 50 53 54 51 56 62 63 60 57 53 42 37 40 37 35 37 37 38 36 35 33 33 36 37 37 39 39 40 41 46 46 48 50 52 54 55 58 61 62 64
61 63 59 58 57 64 60 56 57 64 67 63 56 55 42 40 43 42 43 44 44 42 41 40 37 39 39 40 42 44 45 47 49 50 51 53 56 57 59 61 64 65 64 66
63 63 57 64 65 63 58 56 60 67 68 62 55 53 47 36 39 43 43 44 44 46 44 42 43 45 47 47 48 48 50 52 54 54 55 57 59 60 64 67 68 70 70 71
63 60 57 66 68 65 58 65 63 66 68 65 60 54 51 46 43 45 44 45 41 45 46 47 47 50 52 53 52 53 54 56 58 59 60 61 62 64 68 70 71 74 75 76
64 61 59 64 66 66 60 62 66 70 69 67 63 57 57 50 44 48 49 49 51 51 49 49 52 55 56 55 57 58 58 60 61 62 64 64 66 69 72 75 78 79 79 81
55 59 59 64 68 67 64 64 70 72 72 70 65 62 59 53 47 50 54 53 53 54 54 55 55 55 55 57 60 62 64 64 65 67 68 70 72 76 77 82 81 82 83 88
57 53 64 65 68 67 65 67 71 69 69 70 68 62 60 55 53 54 52 53 56 57 58 57 57 57 59 62 62 64 66 67 69 71 73 76 78 79 85 86 85 86 89 95
50 58 63 66 70 68 65 69 71 71 73 72 68 63 62 59 56 55 58 59 60 61 59 59 60 61 63 67 69 69 70 73 75 76 80 82 83 89 89 89 90 93 98 101
52 60 62 67 71 68 67 68 70 71 72 72 71 63 65 59 61 62 62 62 62 62 61 63 64 67 70 74 74 73 75 78 79 82 84 85 90 91 93 93 96 100 103 106
62 68 68 70 70 69 70 70 66 66 68 68 72 70 68 65 66 68 69 68 68 69 67 67 72 74 76 79 78 78 79 82 83 86 88 91 95 96 95 99 102 105 108 114
56 62 69 72 72 69 73 72 69 66 67 71 69 69 70 69 70 72 73 71 72 71 73 74 76 78 82 84 82 81 82 84 87 91 94 96 99 99 103 105 108 112 116 117
66 64 69 73 74 76 77 76 73 66 61 61 64 65 69 73 75 75 73 74 76 77 77 79 83 87 88 83 82 83 86 90 93 95 99 101 104 107 109 111 114 117 117 116
64 67 69 73 77 76 78 77 74 69 64 62 64 66 68 70 71 73 76 76 78 80 83 85 88 87 84 82 85 88 92 94 97 102 105 108 109 112 114 116 118 117 118 117
68 70 72 74 78 78 77 76 76 73 70 67 68 69 72 72 74 76 79 80 80 79 81 82 84 84 85 87 90 93 96 101 105 107 109 112 114 117 119 119 118 119 117 116
67 70 71 73 75 78 79 77 78 77 73 71 72 71 73 71 70 74 77 75 76 80 85 85 86 88 90 92 96 100 104 106 107 111 113 115 118 119 118 119 118 116 116 116
65 68 69 70 72 75 79 76 74 72 73 74 75 77 79 81 79 79 79 79 84 84 85 87 89 91 95 98 103 105 108 111 112 115 117 118 118 119 119 117 117 115 116 116
60 66 70 70 69 71 75 78 76 74 73 71 72 73 74 75 79 81 80 81 83 85 87 90 93 97 101 104 106 109 111 113 115 117 118 119 118 116 115 114 114 114 112 109
60 67 68 67 70 68 69 70 72 73 73 74 75 75 76 76 76 77 80 82 85 88 92 96 99 101 103 107 110 111 113 115 116 118 117 115 113 113 113 113 111 108 104 100
62 69 65 60 62 63 64 66 67 67 67 69 71 72 74 76 79 82 85 87 91 94 95 97 100 105 107 108 110 112 114 114 114 112 111 112 112 112 110 106 103 99 96 93
55 57 58 56 56 60 65 67 67 69 69 71 73 76 79 81 84 86 87 88 92 96 99 102 102 104 106 109 110 110 110 108 108 109 110 111 108 104 100 96 92 90 87 84
51 49 47 50 52 57 61 66 69 72 73 75 76 78 80 83 85 87 88 90 92 95 97 100 102 104 105 105 106 105 105 106 108 108 107 102 97 93 90 87 84 83 81 77
43 43 45 48 51 54 56 59 61 64 67 69 72 75 77 79 81 83 86 89 93 96 98 100 100 102 102 102 102 103 104 105 105 100 94 91 89 86 84 82 80 78 75 73
44 46 49 51 53 55 57 59 61 64 66 69 72 74 76 79 83 86 89 92 94 95 97 97 97 98 99 100 101 102 102 98 92 89 87 85 83 82 80 78 75 73 71 68

GFSNGP_250_spd_090.txt.gz
Wind_Speed
89 91 93 90 85 84 83 75 73 62 54 51 53 45 47 47 39 35 34 30 26 21 17 17 14 16 17 18 18 17 16 19 20 22 25 24 21 18 20 23 22 27 32 41
84 90 89 91 89 88 81 76 68 63 60 59 57 49 45 48 41 36 37 36 32 28 25 23 21 17 17 18 17 18 20 21 23 24 26 29 31 30 31 35 34 33 37 41
64 76 86 94 84 84 83 80 73 65 66 62 59 50 49 52 48 40 35 39 38 36 32 30 27 25 25 24 24 23 23 23 25 27 29 29 32 34 40 40 43 44 47 49
61 71 76 67 72 72 70 70 67 62 61 58 59 51 52 55 52 45 37 40 42 39 37 34 34 32 32 33 31 29 29 30 32 34 35 36 36 39 43 46 48 50 52 54
60 68 65 59 64 65 63 59 60 58 58 55 61 53 57 59 57 54 43 37 41 37 36 37 37 36 37 37 37 37 35 33 36 38 40 42 44 46 48 51 53 54 57 59
61 62 54 55 57 58 57 51 55 58 59 60 61 60 60 64 60 60 54 41 42 42 39 40 42 43 44 43 44 42 39 39 42 44 46 46 48 50 53 54 55 58 61 63
56 56 51 56 54 56 54 57 59 57 59 59 61 60 66 69 64 60 60 54 43 44 46 47 47 48 49 46 46 44 43 45 47 49 50 51 53 55 58 60 61 63 65 68
57 57 51 57 58 59 59 62 61 59 62 64 67 67 69 70 66 62 65 65 55 44 49 49 48 48 51 50 46 45 46 49 50 51 53 55 57 60 63 65 67 70 71 74
60 61 56 57 59 59 60 63 61 61 61 66 67 63 67 70 68 66 64 66 65 54 49 54 58 56 54 46 50 49 49 51 52 53 55 58 62 65 68 70 74 76 78 80
65 64 59 59 59 55 53 61 60 62 64 65 64 61 70 76 75 70 66 65 67 66 59 60 59 56 50 50 53 52 54 55 58 58 61 65 70 72 74 76 79 82 83 85
63 65 58 51 55 54 53 62 63 63 62 66 68 66 74 76 73 72 68 66 66 67 69 67 62 55 53 55 56 59 60 62 63 65 68 74 76 81 83 83 85 88 88 89
63 61 53 46 51 52 56 63 67 64 63 65 70 69 73 76 75 71 69 67 68 69 68 67 63 59 58 60 64 66 67 68 70 72 76 81 83 89 89 88 89 90 91 96
64 60 55 47 43 54 57 62 61 66 63 66 66 69 73 76 75 73 72 67 69 69 69 67 66 65 67 70 71 72 72 73 76 81 84 87 90 95 92 91 92 94 98 101
58 55 49 40 43 56 58 58 62 65 64 67 67 68 72 76 75 74 71 69 70 70 70 68 70 72 74 76 76 76 78 79 82 87 89 93 99 96 93 94 97 100 103 107
55 49 37 40 49 52 57 57 60 64 67 67 68 69 70 72 74 74 74 76 75 67 68 71 74 78 78 79 80 80 83 85 88 91 95 98 98 96 98 99 103 106 110 114
52 51 37 49 50 52 54 56 61 65 66 69 69 68 70 68 71 68 69 72 70 71 73 76 80 81 81 82 83 85 88 91 93 95 98 103 99 99 102 106 109 113 117 120
46 41 45 53 58 59 57 58 61 66 67 67 67 68 72 70 68 69 69 71 72 74 76 78 80 82 84 85 87 90 93 94 96 101 103 98 101 105 108 112 116 120 124 127
44 51 56 58 60 60 58 59 61 66 68 65 65 65 71 74 69 65 66 68 70 72 74 76 80 83 85 88 92 94 96 98 103 100 101 104 107 112 116 120 124 127 129 130
51 57 59 62 63 57 61 64 66 65 65 64 64 67 70 69 70 69 69 70 71 73 77 81 84 85 89 92 93 97 100 99 103 103 105 110 114 119 123 126 129 130 129 128
60 66 67 64 63 60 63 64 66 67 65 63 63 64 68 70 72 73 72 71 73 76 81 83 83 85 87 94 98 98 101 101 104 107 112 117 121 124 127 128 128 128 125 123
63 67 68 64 64 63 66 66 67 67 67 67 66 67 68 69 71 73 74 74 74 76 77 83 88 90 95 96 99 101 102 105 110 115 118 121 124 125 126 127 124 122 119 115
63 64 64 65 66 64 63 66 72 72 69 66 67 69 72 74 74 75 77 80 82 86 87 89 92 93 96 99 101 104 107 112 114 117 120 121 123 123 121 119 116 114 110 108
59 62 63 63 66 69 69 73 74 71 69 70 71 75 77 77 79 79 80 84 87 88 90 92 94 97 98 101 105 108 110 114 114 116 119 119 118 115 114 112 109 107 104 100
56 60 60 64 64 62 64 67 67 66 67 69 71 73 76 79 84 87 89 89 90 91 92 92 94 98 102 104 108 108 108 112 114 114 113 112 112 111 107 106 102 99 95 92
51 53 54 55 51 52 60 62 63 66 68 68 67 69 71 74 77 79 81 84 86 89 92 95 99 102 101 100 104 107 109 109 108 108 108 108 107 104 100 97 94 90 88 84
43 44 47 49 49 51 59 63 65 65 66 65 67 68 69 72 74 78 81 84 87 89 91 92 93 96 99 102 104 105 104 104 105 106 106 103 99 96 93 90 87 83 80 78
40 41 45 47 48 50 55 60 63 65 66 67 67 67 69 72 74 76 78 81 84 86 88 91 95 98 101 102 101 101 103 104 104 101 98 95 93 90 87 84 81 78 76 74

GFSNGP_250_spd_093.txt.gz
Wind_Speed
85 88 89 85 79 79 75 69 69 69 69 66 63 60 54 48 43 39 38 38 34 34 27 25 18 14 12 13 13 13 14 15 17 18 18 19 19 21 22 23 25 27 27 32
83 88 89 91 89 88 84 80 75 71 68 67 62 60 57 54 46 39 40 39 38 39 38 30 27 24 17 15 16 17 17 16 16 18 19 20 21 24 26 30 33 35 38 43
84 87 90 87 89 90 90 91 86 83 72 68 63 61 59 58 48 42 41 45 43 42 41 36 35 32 27 22 22 24 25 24 22 22 23 23 24 27 28 30 33 36 40 44
77 84 83 75 86 88 84 79 82 80 80 78 73 68 67 61 51 49 48 51 51 45 44 41 39 36 36 31 30 32 30 31 32 31 30 29 30 32 33 36 39 40 43 47
71 75 71 77 82 84 87 84 83 80 76 74 73 70 70 66 58 57 54 56 56 51 46 45 42 41 39 41 39 38 37 35 35 36 37 35 34 36 39 43 44 46 48 51
56 63 67 73 71 77 79 80 74 72 71 76 80 73 74 75 67 60 56 60 60 56 51 48 44 45 41 41 44 43 43 43 43 45 43 41 39 41 44 47 49 50 52 55
51 53 58 65 68 71 68 67 66 63 62 64 66 66 72 69 65 63 60 59 63 62 54 55 43 48 48 45 47 47 49 50 50 50 49 47 45 46 49 51 52 54 56 59
52 54 56 59 58 57 55 62 64 61 56 58 59 61 64 65 67 65 62 60 64 67 60 58 55 48 48 49 50 52 52 56 55 50 51 51 51 51 53 56 58 61 64 68
50 56 59 61 58 55 55 59 57 56 52 55 58 59 61 62 66 65 63 64 63 67 68 62 63 68 70 62 59 60 62 61 56 55 57 57 57 57 60 63 65 68 73 75
48 54 57 59 58 59 58 56 52 53 50 53 57 58 62 65 70 64 64 66 68 71 74 70 63 69 71 71 69 66 66 63 59 59 62 62 64 64 67 71 73 79 80 83
48 53 56 55 54 56 56 54 51 50 50 54 58 59 63 65 66 64 68 69 74 76 76 73 69 66 70 72 73 74 74 66 66 68 68 68 68 69 74 77 81 86 88 90
51 52 54 49 45 46 50 46 46 51 50 53 56 59 61 64 67 65 68 72 71 71 73 73 70 67 71 72 72 71 73 73 74 73 73 74 74 78 81 86 89 92 95 97
51 50 49 46 43 42 41 41 45 47 51 55 57 59 63 64 62 66 71 69 69 69 74 74 71 70 73 73 72 74 75 75 76 77 79 80 82 85 87 91 94 96 99 103
51 49 48 49 48 43 35 43 49 48 49 56 58 61 65 67 65 64 69 72 68 68 73 75 75 75 79 70 76 75 78 80 81 81 84 85 87 89 92 96 99 101 104 108
46 49 49 52 50 47 42 39 48 52 52 56 60 65 70 70 70 71 70 70 71 67 74 78 82 83 77 75 77 79 81 83 84 85 87 90 92 95 98 100 102 106 110 113
43 48 50 54 52 50 44 48 45 49 52 53 58 67 69 73 73 73 72 71 71 70 74 78 83 83 82 83 84 85 87 88 89 89 89 91 96 98 101 103 107 112 115 118
39 43 47 50 49 45 43 44 43 52 51 49 50 63 63 73 71 72 71 72 70 74 71 75 77 80 83 85 86 88 89 89 89 89 91 95 97 101 105 108 113 114 120 121
38 39 44 44 44 42 45 44 48 45 51 52 57 58 63 68 70 68 68 69 69 71 74 74 76 78 80 82 84 85 86 88 89 90 93 98 102 107 110 113 116 120 121 122
37 37 41 42 43 45 45 48 57 54 52 51 55 60 64 67 68 67 66 68 69 70 71 75 77 78 80 79 80 82 85 87 92 96 99 104 107 110 113 118 120 121 123 127
35 37 41 44 46 50 53 54 53 54 54 54 55 59 64 66 65 66 66 66 68 69 70 72 78 81 81 82 85 88 89 93 96 101 104 105 111 115 118 119 120 124 128 130
35 37 39 44 50 52 54 58 54 60 65 61 58 59 61 62 62 63 66 69 69 69 69 70 73 76 81 85 89 93 96 96 99 103 108 112 114 118 118 121 124 127 124 124
37 40 42 46 52 55 57 58 63 66 65 65 65 65 64 62 62 62 64 66 67 69 71 72 74 77 80 83 87 91 95 98 102 106 111 115 115 117 120 121 120 121 122 119
38 42 45 49 54 56 57 57 59 63 65 70 68 67 67 66 65 65 66 67 69 72 75 77 80 83 86 90 94 97 101 106 110 110 110 112 115 116 116 117 118 117 112 109
40 42 46 51 54 59 60 61 62 62 64 62 62 64 64 64 66 68 69 71 73 74 76 80 84 87 89 93 94 97 99 101 103 106 108 109 112 112 113 114 111 108 105 102
40 41 47 50 52 53 58 60 61 63 63 63 66 64 63 66 68 70 73 76 76 77 78 81 83 85 87 90 91 93 96 99 102 105 107 108 108 110 109 106 105 101 97 93
38 39 42 45 48 53 57 58 59 60 61 62 63 62 63 67 70 71 72 74 77 79 80 82 84 85 86 88 91 94 98 101 103 104 105 106 107 105 103 101 97 92 89 86
32 32 36 40 43 47 49 49 52 56 55 57 60 63 67 69 71 74 76 76 78 81 82 84 86 88 89 92 95 98 100 101 102 104 105 104 103 101 97 92 88 86 83 80

GFSNGP_250_spd_096.txt.gz
Wind_Speed
84 86 84 80 78 70 59 54 52 55 50 54 53 55 61 64 59 57 51 49 43 33 37 37 31 28 21 18 18 19 19 17 18 19 20 21 22 23 22 20 20 21 25 29
84 87 91 88 84 80 75 68 62 61 57 57 58 61 64 64 59 58 57 52 43 33 40 40 37 32 30 27 23 22 19 18 17 17 17 18 18 18 19 19 21 22 25 28
86 88 90 87 86 85 83 82 77 70 67 71 70 67 68 73 71 69 64 54 46 39 43 40 41 38 36 36 33 30 27 24 24 24 24 25 25 25 26 28 28 29 30 33
85 88 85 86 89 92 91 89 85 77 73 71 70 70 67 75 73 67 63 57 55 47 44 45 45 45 41 41 41 40 37 33 31 33 34 32 33 34 34 36 36 37 39 40
78 81 83 85 87 88 90 88 87 82 80 80 76 73 66 74 74 71 67 64 64 61 54 50 49 50 47 46 44 41 42 41 38 38 40 42 40 41 40 42 44 44 45 47
71 71 71 82 82 85 84 84 84 83 81 84 84 81 79 85 80 75 63 60 63 64 57 53 52 54 51 49 50 44 42 43 44 46 48 49 48 49 50 50 51 50 52 53
65 66 66 72 77 78 80 80 80 79 78 78 79 78 77 76 77 74 71 70 66 61 58 56 54 58 56 54 51 50 49 49 49 50 52 54 54 56 57 56 56 57 58 58
50 56 66 69 69 71 75 74 81 81 77 75 73 73 75 78 78 76 76 73 68 66 67 62 57 61 63 59 57 57 55 56 56 55 54 56 59 61 64 61 61 65 65 66
49 54 52 55 61 67 70 68 70 72 76 72 68 67 68 70 71 71 71 70 69 67 66 62 60 64 65 66 64 60 61 63 60 61 64 65 66 67 69 66 66 66 70 73
46 48 51 56 59 62 60 59 58 63 68 67 62 62 62 62 62 62 59 60 60 60 61 61 61 66 68 70 73 67 68 67 64 67 68 71 73 73 72 74 75 75 76 78
43 46 50 55 56 57 56 50 54 58 62 56 55 58 58 58 61 56 53 47 56 57 58 59 63 69 70 74 73 74 74 72 71 71 73 76 76 77 78 79 79 82 83 84
42 46 48 51 50 51 50 51 54 53 48 43 47 48 51 57 53 51 52 52 59 62 59 64 67 72 74 75 72 76 79 79 76 71 75 77 79 81 82 83 84 86 88 89
40 44 46 47 47 46 45 49 51 49 50 45 46 46 48 46 41 47 50 51 58 66 65 65 69 72 74 75 76 77 78 82 82 82 77 76 80 83 87 88 88 90 91 94
40 43 45 45 42 41 43 47 46 48 47 44 44 46 47 45 47 44 48 53 55 62 64 65 68 72 74 75 79 80 80 81 82 84 86 86 84 85 88 90 92 94 97 100
39 41 45 42 41 39 41 43 45 44 41 39 43 47 48 49 49 53 46 41 46 58 65 66 65 68 69 70 75 82 79 80 81 84 86 88 89 91 92 95 98 100 104 108
40 39 41 40 38 38 40 42 43 45 43 41 41 43 51 53 55 57 61 51 49 45 49 52 66 68 73 71 74 79 80 80 80 83 89 93 95 97 100 102 104 107 109 110
39 38 37 38 37 41 43 40 38 42 41 47 49 49 47 53 58 62 61 61 61 67 62 66 65 69 73 75 76 78 81 83 85 85 86 90 95 100 103 105 106 107 111 113
37 38 37 38 34 36 39 42 39 39 44 45 49 52 52 52 57 63 67 70 71 68 68 69 73 78 79 79 80 82 83 83 85 89 91 91 92 94 96 99 104 107 112 117
31 37 37 38 34 33 38 42 43 40 46 41 48 54 52 50 53 62 68 70 76 77 77 78 80 82 82 83 83 83 84 82 82 82 86 91 94 97 100 102 106 112 112 111
28 31 36 37 36 34 33 39 43 45 44 50 52 53 55 56 58 60 63 69 74 76 78 80 83 84 84 83 82 82 83 83 83 84 86 89 91 94 96 98 101 105 111 115
29 33 37 36 34 35 37 43 48 50 49 55 56 58 60 59 63 63 62 65 67 70 71 74 77 79 82 83 83 83 82 84 85 86 86 88 89 93 98 103 107 110 113 113
35 37 39 37 32 35 38 42 47 51 55 53 58 62 61 62 60 60 64 67 70 72 71 72 73 75 77 78 79 79 81 82 83 84 86 91 95 98 102 104 107 109 112 112
37 37 38 37 33 35 37 42 47 51 54 55 58 59 64 66 62 62 65 67 68 69 69 70 72 74 76 77 78 79 80 82 85 87 90 94 97 99 102 105 108 109 108 111
35 36 37 35 33 34 38 43 50 52 53 55 59 58 57 61 63 66 66 67 70 70 71 71 74 77 78 78 79 81 83 86 88 92 93 95 98 102 105 106 106 108 110 109
38 34 33 34 34 35 38 43 47 51 52 54 57 59 61 64 64 66 68 70 71 70 70 73 75 76 77 77 78 80 82 86 89 92 96 100 102 103 103 104 107 107 103 99
31 33 32 32 37 36 37 41 46 49 51 54 55 56 60 61 62 64 66 65 66 68 71 72 72 72 71 73 78 83 87 91 94 96 98 99 100 101 103 104 101 97 94 93
31 30 30 31 34 36 36 39 45 48 50 52 55 56 59 61 63 64 64 64 67 70 71 73 74 74 77 81 83 86 89 93 94 95 97 98 100 101 100 97 94 93 89 87

GFSNGP_250_spd_099.txt.gz
Wind_Speed
84 88 92 90 85 84 85 80 77 72 72 73 70 68 69 66 60 54 50 47 48 39 37 42 37 29 35 31 25 25 24 22 22 24 27 28 30 33 35 36 37 36 36 37
82 87 89 93 92 89 78 78 70 77 77 72 67 64 67 59 59 55 51 45 48 45 40 42 42 34 33 39 32 29 27 26 27 30 29 28 28 30 31 31 33 34 34 35
77 87 90 85 89 88 84 85 76 75 70 72 68 65 66 64 57 53 53 49 48 47 43 42 45 46 40 40 41 35 34 32 31 30 29 28 29 29 29 30 31 33 34 36
73 81 84 85 89 89 84 76 84 81 76 71 62 60 63 62 57 57 53 56 52 50 51 50 54 44 42 34 45 46 40 37 38 40 40 38 37 37 37 37 37 39 40 42
71 75 80 83 85 90 88 83 80 72 65 61 61 59 58 60 59 56 55 57 61 57 59 57 59 51 50 48 49 49 51 44 42 42 45 46 45 43 44 46 45 46 46 48
67 73 76 82 79 83 85 88 88 83 75 76 72 69 70 72 70 62 63 64 64 59 61 65 57 57 53 52 48 48 55 53 50 49 47 48 50 51 51 51 53 56 57 56
63 67 70 73 75 78 81 84 84 85 86 82 79 80 82 78 77 74 70 67 65 65 62 61 63 59 57 56 56 51 54 58 59 58 55 53 53 55 57 57 59 62 63 64
55 56 64 65 67 72 77 79 79 77 79 79 83 85 83 84 82 80 79 78 73 72 73 74 72 73 70 62 61 55 52 51 62 64 66 64 62 61 60 62 63 65 68 70
50 52 52 56 62 62 66 70 75 76 75 75 75 77 82 84 84 84 84 83 83 84 81 78 74 70 66 67 64 58 61 60 58 65 66 68 69 70 71 71 71 74 74 77
47 48 47 47 52 59 67 66 64 65 66 68 69 69 72 73 73 76 79 80 81 80 77 73 71 72 71 69 69 71 67 66 65 66 69 72 71 72 73 74 76 77 79 79
43 45 43 45 50 53 60 60 61 63 62 60 63 65 68 69 70 69 69 70 71 71 72 73 67 68 68 67 66 65 65 67 68 70 72 74 76 77 77 79 80 82 84 87
39 41 42 44 48 52 49 47 50 53 55 59 61 61 59 59 60 59 63 67 68 65 59 56 55 57 57 57 54 54 57 65 68 71 73 74 76 78 81 84 83 83 85 87
39 41 40 41 43 45 45 47 49 48 49 51 49 50 42 44 50 51 59 61 57 54 45 45 46 51 47 43 52 55 60 67 71 72 74 76 76 79 80 83 87 90 92 95
40 39 39 39 40 41 41 44 44 45 48 46 46 41 37 41 44 44 42 42 45 42 46 46 52 54 50 54 47 52 60 66 68 72 73 75 77 81 84 87 89 92 94 96
40 42 39 39 39 38 38 40 42 44 43 43 42 38 41 39 40 36 36 30 29 35 40 49 52 53 56 59 64 68 70 71 72 73 73 74 78 81 83 88 90 92 93 95
39 43 39 39 38 38 39 40 40 42 44 44 44 41 42 43 45 44 50 51 45 41 44 42 46 50 55 64 65 68 67 68 73 73 75 76 78 81 86 89 90 93 95 96
39 40 38 37 37 36 38 41 43 42 44 44 46 43 42 43 44 46 50 57 49 53 53 50 51 51 51 52 55 63 65 67 67 71 75 78 81 83 87 91 95 96 98 99
38 36 35 35 34 34 35 38 42 45 46 47 48 47 45 45 49 48 51 56 56 58 59 58 59 58 62 63 64 67 70 74 78 79 79 85 90 89 90 93 100 102 101 103
38 36 35 36 34 32 30 34 38 42 47 50 49 52 51 52 47 47 51 58 65 69 69 67 68 70 68 69 71 74 79 80 85 87 89 91 93 93 97 99 102 104 105 105
31 33 33 36 36 34 32 34 37 40 41 49 51 54 59 54 55 56 55 56 63 70 73 73 74 76 76 77 80 85 89 90 91 91 94 96 100 102 104 103 104 104 104 103
31 29 29 34 38 37 35 36 35 37 40 43 50 56 62 60 53 55 60 62 62 65 71 78 81 84 86 88 90 93 95 96 98 99 101 102 101 99 97 97 98 99 98 98
29 31 35 34 36 36 36 38 36 37 42 46 53 53 54 59 57 56 57 61 64 64 67 71 75 80 85 91 95 96 94 92 92 93 94 94 93 93 93 93 95 96 97 100
33 30 31 33 34 36 38 36 38 38 40 45 49 49 55 56 58 58 61 59 61 66 70 72 72 74 77 79 82 85 88 90 90 89 88 87 87 88 91 90 92 96 99 100
34 37 36 35 36 39 37 34 36 39 42 46 49 51 57 57 59 62 64 66 65 67 70 73 76 78 80 82 83 84 82 82 82 81 81 85 87 87 90 92 95 97 95 95
34 35 36 37 37 35 33 33 34 38 42 44 48 54 53 58 60 63 64 63 64 70 71 75 76 77 79 79 79 77 76 75 75 78 82 82 84 89 92 93 92 90 93 97
34 32 32 32 30 30 30 29 31 34 36 39 42 44 48 52 56 59 62 64 66 68 68 70 73 73 71 70 70 71 77 80 78 76 79 83 85 88 88 87 90 94 95 94
30 29 26 24 24 27 31 30 30 32 35 37 41 43 46 50 53 56 59 61 62 62 63 64 64 67 71 73 74 74 73 77 80 80 80 83 85 84 87 91 93 92 89 87

GFSNGP_250_spd_102.txt.gz
Wind_Speed
52 56 63 63 71 78 74 78 78 66 74 73 70 72 74 61 58 58 54 54 50 44 46 43 44 38 31 25 25 25 30 30 25 20 21 23 33 44 53 59 63 67 68 67
49 55 57 62 71 76 77 80 77 67 59 71 78 72 64 62 58 60 57 56 53 52 46 45 44 41 33 33 27 27 28 33 33 28 25 23 24 27 30 35 38 42 46 49
49 56 57 54 62 74 81 76 71 70 62 65 62 61 62 62 61 62 62 61 59 56 54 53 50 46 41 35 30 35 30 31 37 36 34 31 29 29 30 32 35 37 40 41
45 51 47 56 73 78 85 85 77 75 71 70 68 66 63 70 71 70 66 63 66 62 56 48 48 50 45 41 34 40 35 36 32 39 40 40 41 39 39 39 39 39 39 39
42 44 54 59 64 69 72 85 80 78 80 77 72 65 74 79 74 71 69 68 59 54 51 50 52 47 47 45 41 43 44 44 42 40 42 50 45 45 47 50 50 49 49 48
41 45 55 61 64 59 72 87 87 86 88 82 78 78 81 82 80 75 69 59 59 61 59 56 52 47 50 52 52 51 50 50 50 50 47 48 55 56 53 52 52 53 57 59
42 44 52 57 53 57 67 82 89 89 87 83 82 86 81 76 74 68 66 61 56 60 51 48 54 55 56 58 59 53 59 54 49 51 55 54 57 60 61 61 61 60 60 62
37 40 48 51 52 59 62 71 74 83 89 89 84 80 74 76 76 71 66 60 58 58 57 59 58 57 57 56 59 62 57 58 58 59 63 63 61 63 67 67 66 67 68 70
37 41 46 46 52 54 56 60 65 69 76 81 86 79 66 68 70 69 68 65 64 65 65 66 67 67 63 61 61 61 65 69 69 65 66 63 66 65 64 66 71 75 77 78
36 37 41 42 47 51 56 58 60 64 67 70 76 83 86 78 76 73 73 74 74 75 76 77 78 76 72 72 74 76 79 77 76 72 70 69 67 66 71 71 70 73 77 79
36 38 40 41 41 44 49 56 61 62 60 64 67 71 75 80 86 86 86 87 87 85 82 79 79 80 81 79 75 74 75 72 69 70 70 69 70 72 75 76 75 75 77 78
33 35 35 35 38 41 46 49 50 54 58 60 59 57 61 64 67 71 74 74 75 76 77 78 78 77 72 70 69 67 65 68 72 66 62 62 62 59 62 69 70 71 74 77
33 34 34 35 39 41 43 41 39 44 49 51 53 54 56 53 55 56 55 62 62 67 70 70 69 67 67 65 64 64 67 60 56 52 55 43 51 59 62 69 70 67 75 77
33 34 34 35 38 39 40 39 38 43 44 42 43 47 49 50 53 50 54 56 57 59 61 62 61 64 61 62 64 57 46 40 36 44 49 49 55 61 64 72 74 77 79 83
34 34 34 35 36 37 36 36 39 41 42 42 44 43 44 43 42 43 48 53 52 51 52 46 44 42 39 43 44 43 49 53 52 50 57 59 61 65 71 77 81 85 87 90
33 34 33 33 34 36 36 37 39 39 40 42 44 44 45 42 41 42 41 42 43 40 38 35 40 44 50 48 48 54 59 54 56 61 64 66 67 71 77 81 86 89 89 90
36 36 33 33 32 32 33 36 38 39 41 44 43 43 44 42 42 41 42 39 40 42 42 39 42 52 54 57 59 58 60 61 60 62 63 70 70 76 80 80 84 89 89 91
37 36 34 34 33 32 33 35 38 41 44 44 44 45 46 47 45 45 44 45 41 47 47 47 48 52 58 62 64 64 58 61 63 68 73 71 75 79 83 86 90 93 96 99
35 34 35 35 35 32 35 34 35 42 47 48 49 51 51 52 51 48 48 48 49 59 58 57 56 60 65 69 69 66 67 68 71 74 75 80 84 87 89 92 96 97 100 105
33 33 32 32 31 34 34 31 34 38 43 47 50 51 52 53 54 51 52 53 55 58 67 68 69 70 71 71 71 71 73 75 77 77 80 86 90 93 96 98 101 107 108 110
25 29 32 30 28 31 31 33 36 36 37 40 45 50 53 56 58 57 56 57 58 58 61 76 78 79 78 77 79 81 82 83 83 85 89 93 95 97 100 103 108 111 112 114
31 28 31 32 31 32 32 33 34 35 37 38 41 44 48 57 62 63 61 63 62 61 62 64 75 79 81 83 82 83 84 86 89 91 95 97 100 102 106 109 110 112 109 98
27 23 27 31 31 32 32 31 34 36 37 38 40 42 45 50 54 65 65 64 65 64 66 68 67 70 74 82 88 91 94 94 96 99 102 104 106 108 109 107 102 95 91 92
23 22 21 22 25 27 31 33 35 39 37 40 42 44 44 48 53 53 56 58 62 68 68 66 67 71 73 79 82 82 84 90 93 94 94 95 95 94 93 88 83 89 93 96
27 24 27 30 31 33 34 34 36 38 40 40 41 44 46 48 50 52 51 53 58 63 67 72 75 77 78 77 78 79 80 82 86 87 88 88 88 86 87 86 85 90 92 94
26 28 28 29 33 36 37 37 38 38 36 35 37 41 45 49 51 51 53 55 56 58 61 64 69 72 74 75 77 79 79 79 78 78 80 80 79 82 86 87 89 89 90 89
25 27 30 31 28 27 27 27 28 31 34 37 40 42 44 47 50 52 53 53 54 57 61 63 66 69 71 71 70 70 67 69 71 73 74 77 82 84 85 84 85 86 88 90

GFSNGP_250_spd_105.txt.gz
Wind_Speed
46 52 46 45 45 46 45 55 61 70 74 70 76 71 66 61 67 64 60 57 55 51 47 45 44 44 42 37 29 30 24 19 22 27 24 22 25 31 38 53 73 75 76 78
43 49 44 46 41 45 43 57 62 71 76 74 75 71 67 70 73 72 67 59 56 55 49 47 47 42 44 40 34 34 33 22 20 20 29 29 27 25 27 31 40 48 53 56
43 45 43 34 34 44 53 65 70 73 82 79 79 75 77 76 75 63 57 52 54 58 50 35 36 46 43 41 37 37 39 30 28 24 25 31 34 33 30 30 30 31 33 37
42 40 31 44 51 55 63 79 74 73 80 77 78 79 75 75 71 64 60 57 55 56 56 50 53 43 46 49 48 46 41 42 35 34 30 30 31 36 38 39 40 41 41 42
35 34 38 39 45 51 60 70 69 70 71 81 85 81 76 74 72 70 65 61 55 56 54 49 47 46 35 38 52 40 44 48 46 38 37 36 38 41 41 42 45 45 46 49
34 33 39 43 44 49 54 66 61 67 73 72 76 81 79 77 80 76 68 66 61 59 59 57 54 48 53 55 36 40 47 50 48 40 47 45 47 46 51 52 50 51 55 58
29 32 39 37 41 48 60 67 74 77 71 72 67 69 73 70 70 64 59 61 61 64 66 64 58 54 54 53 54 50 49 48 48 48 48 53 53 56 51 52 53 56 60 61
30 36 38 33 39 48 54 57 64 76 76 71 75 71 70 66 65 63 65 65 65 68 68 65 62 61 53 49 44 43 47 50 53 56 58 60 57 58 54 53 58 63 66 66
30 33 35 36 40 46 52 54 58 68 71 81 76 75 75 73 71 72 71 68 66 65 65 65 66 62 54 55 52 51 52 50 54 53 60 64 64 63 64 67 71 68 70 71
32 33 35 35 38 41 47 51 57 60 73 80 88 83 77 77 78 76 75 75 72 67 67 69 67 61 57 53 57 57 60 62 61 63 65 65 63 68 76 81 76 73 72 72
33 35 33 33 34 37 43 47 52 56 65 79 83 88 86 85 83 81 79 79 80 81 77 74 68 64 61 61 60 60 64 66 70 72 74 73 75 81 81 77 75 73 76 78
29 31 29 30 33 34 37 43 49 53 56 61 70 81 84 87 87 88 85 83 82 77 68 67 67 68 69 70 70 71 73 76 77 76 79 83 83 79 74 73 74 76 70 63
29 31 31 30 33 33 37 41 42 45 49 52 54 58 68 78 86 88 86 83 81 82 79 75 75 76 77 77 78 79 84 87 83 79 77 75 72 72 72 73 68 60 59 63
28 26 27 30 31 32 37 38 39 41 43 46 49 51 54 57 60 64 69 74 77 80 81 84 86 86 88 88 87 83 79 77 75 75 69 72 77 77 73 67 58 56 59 64
27 27 27 28 31 33 35 37 37 40 42 44 45 45 49 53 56 59 58 60 64 67 66 67 66 67 71 70 72 74 75 75 75 75 75 69 60 55 57 58 59 64 68 74
29 30 30 32 32 32 34 35 36 39 40 43 45 42 44 45 49 54 55 57 60 58 60 61 58 65 62 59 62 62 60 56 58 59 61 59 55 58 64 64 64 66 70 74
29 30 29 29 30 32 34 35 34 37 40 42 43 42 45 48 49 51 49 49 51 55 54 56 51 52 53 50 52 56 59 59 59 64 62 58 61 65 67 66 74 77 79 82
29 29 28 30 31 32 35 36 35 37 39 41 43 43 46 47 48 50 49 48 50 51 46 44 49 49 47 48 54 58 62 64 67 65 65 66 70 72 76 80 82 86 89 92
31 30 30 30 31 31 34 34 35 38 41 42 44 44 45 45 46 48 48 47 49 49 49 46 50 52 52 55 57 63 65 67 68 70 72 75 77 78 81 83 85 89 92 95
31 30 30 31 31 31 32 33 33 37 40 44 46 47 49 49 50 52 51 52 52 53 57 55 53 57 61 64 65 67 70 73 77 78 79 82 83 85 87 90 92 95 95 95
30 33 31 29 30 32 33 34 32 34 37 40 44 46 48 49 52 53 53 55 57 58 61 60 59 62 63 68 72 74 73 75 77 79 82 85 85 88 91 93 96 95 98 101
24 27 27 31 34 35 36 36 35 35 37 38 40 42 45 49 51 53 55 57 58 60 62 64 64 65 64 68 77 79 81 82 84 85 87 88 89 90 93 96 100 102 105 108
22 24 29 31 38 40 41 40 38 37 38 39 40 42 44 45 47 51 55 57 57 61 62 66 67 66 69 68 71 83 87 89 91 92 93 93 95 98 101 105 107 109 110 110
25 21 20 24 35 40 37 35 35 37 39 41 43 45 46 46 45 47 50 52 54 57 59 63 66 69 70 71 72 76 80 88 91 93 98 101 103 105 107 106 103 104 107 105
21 22 18 22 25 29 31 33 35 37 37 39 40 44 44 46 48 48 48 50 53 55 56 55 56 60 65 70 73 76 79 83 83 84 87 91 92 92 93 95 95 98 96 94
20 20 22 26 30 30 31 33 34 33 35 38 40 42 45 46 47 48 51 53 53 54 54 53 55 57 58 60 67 74 79 82 86 88 88 90 91 92 92 88 80 78 83 87
20 22 22 24 28 30 29 30 31 31 32 37 40 41 42 44 46 47 51 53 54 54 54 55 55 56 57 60 62 65 69 74 76 76 78 78 74 72 73 77 80 83 84 84

GFSNGP_250_spd_108.txt.gz
Wind_Speed
64 65 74 64 57 51 51 42 41 52 59 62 68 60 64 64 51 57 52 55 57 50 42 46 38 38 41 38 35 36 35 30 27 27 27 28 27 24 24 28 40 64 64 64
55 59 61 52 44 47 41 39 48 61 62 71 72 64 64 66 63 59 48 47 54 54 36 41 42 37 33 35 40 39 43 36 32 28 31 28 30 35 28 25 26 31 40 62
52 52 44 39 51 52 49 48 57 69 74 77 81 75 67 67 69 66 60 52 55 54 60 57 51 40 35 34 35 38 42 41 34 28 30 31 27 27 31 34 35 31 30 33
48 34 34 53 48 47 45 51 58 64 70 77 84 84 76 69 70 71 70 66 67 57 56 56 53 47 42 39 36 45 38 37 39 38 38 37 36 34 32 30 33 37 40 42
34 26 39 41 42 43 46 49 58 64 74 78 85 89 86 80 76 74 72 71 70 62 57 54 52 52 46 42 38 37 39 42 44 44 46 43 40 41 34 34 37 37 38 39
29 33 35 39 43 44 48 54 63 67 75 78 84 89 89 86 82 82 77 77 71 62 56 55 52 54 48 46 35 37 36 38 42 44 40 41 43 49 49 43 42 49 47 46
27 31 33 40 43 45 50 55 63 68 73 79 80 88 91 87 86 83 82 77 73 68 64 63 57 54 53 55 56 53 53 50 49 52 49 48 50 51 53 56 50 52 54 56
28 30 33 38 40 44 47 52 59 60 65 73 81 83 90 86 87 87 83 77 70 65 62 64 62 61 60 55 55 53 54 52 52 56 58 57 60 58 57 55 56 57 57 57
27 30 36 38 42 46 49 52 58 59 63 69 74 85 86 86 83 82 81 77 74 70 69 68 65 66 62 59 54 55 54 53 52 53 57 62 64 63 59 56 59 60 62 62
31 34 36 39 41 44 46 52 56 61 63 61 69 73 90 87 85 81 78 76 76 73 71 69 74 71 63 59 61 60 65 66 64 64 62 59 59 60 61 62 62 64 66 68
32 33 34 37 40 39 46 52 54 60 63 65 67 73 73 84 90 90 86 83 80 74 68 61 60 61 62 62 62 62 62 61 63 65 65 68 66 67 64 66 70 70 72 68
22 20 25 25 31 39 46 50 54 58 62 69 71 73 74 72 73 72 70 69 67 63 64 62 65 67 67 67 67 66 69 68 70 73 71 71 74 71 70 70 70 78 72 61
22 23 26 29 31 35 41 46 50 55 59 63 73 75 75 73 71 71 76 73 70 68 69 71 70 72 74 74 73 75 76 76 78 74 72 73 74 76 76 80 76 78 84 93
22 22 26 31 34 36 38 41 46 50 55 58 62 68 78 80 79 79 78 76 76 75 75 76 78 80 81 81 81 82 85 79 71 69 71 78 81 84 86 87 86 91 89 86
27 29 31 31 33 35 36 38 43 48 51 55 58 61 64 73 79 84 83 83 85 83 81 82 81 82 83 86 89 88 83 79 79 81 82 85 88 89 89 91 92 90 86 83
24 27 28 28 29 32 34 37 40 42 45 49 52 54 57 61 66 68 71 78 83 87 88 87 87 87 86 85 85 86 87 89 87 83 84 89 90 90 85 76 66 81 69 72
25 28 28 29 32 34 36 38 40 41 43 45 47 50 53 58 59 62 62 64 69 75 79 85 90 92 95 95 92 85 81 78 73 71 72 73 72 71 69 62 72 74 75 81
25 25 27 30 33 34 34 35 38 41 43 44 46 48 50 51 51 52 54 60 63 66 68 70 71 73 74 74 75 71 71 71 67 67 66 65 67 63 69 69 81 87 89 88
27 27 28 29 31 32 33 33 35 38 40 42 44 46 47 49 50 53 54 55 56 58 60 62 64 67 68 66 66 64 63 61 63 62 63 63 69 71 74 81 89 90 89 91
32 32 32 32 32 33 33 34 35 37 39 40 42 44 45 47 48 51 54 54 54 55 56 57 58 60 62 63 63 63 63 63 63 64 64 67 74 78 77 82 87 89 91 92
35 34 33 35 37 37 37 37 37 37 38 40 41 43 45 46 47 48 50 51 53 54 55 57 59 62 63 64 64 66 67 67 68 71 71 73 75 75 80 85 90 93 94 97
32 32 35 36 37 38 39 41 42 41 41 42 43 43 45 46 48 48 50 52 53 54 56 58 60 61 64 67 67 66 69 70 72 74 76 79 79 82 84 89 94 98 99 100
26 30 32 33 36 39 39 39 41 43 44 45 46 45 45 47 47 48 50 51 52 54 54 55 57 58 60 62 65 67 68 71 75 77 78 81 83 86 89 93 95 99 103 104
27 27 28 37 40 41 42 43 43 43 43 44 45 46 46 46 47 48 48 48 50 51 51 53 56 58 59 60 63 66 66 69 72 76 79 81 86 90 92 92 93 95 100 104
25 26 25 27 34 39 41 43 43 41 40 43 44 45 45 46 46 47 48 49 49 49 50 51 52 53 55 57 59 62 63 64 65 68 71 74 79 84 86 89 91 91 94 96
21 21 24 27 31 31 37 36 36 36 34 35 38 39 42 43 43 45 46 47 48 49 51 52 52 54 56 56 58 60 62 64 65 66 68 72 74 76 78 80 83 86 88 88
20 20 22 24 27 28 34 35 34 31 30 32 34 36 40 41 42 43 45 48 50 51 52 52 55 59 59 57 58 60 59 62 65 66 67 69 70 73 75 77 78 79 80 81

GFSNGP_250_spd_111.txt.gz
Wind_Speed
72 74 79 84 79 71 69 62 56 55 48 48 38 41 51 59 63 62 63 62 55 53 53 48 47 46 42 41 38 34 29 29 29 29 27 24 25 21 21 22 23 42 38 49
62 68 68 69 62 64 56 49 46 51 43 40 43 46 62 67 63 65 66 61 61 55 56 53 50 47 42 37 40 41 39 35 34 33 32 26 28 31 28 25 26 28 38 46
57 63 60 54 65 57 49 44 47 44 48 39 46 58 70 72 69 67 70 62 59 56 58 59 53 46 42 36 39 38 38 34 36 34 34 32 31 31 28 30 30 30 33 35
52 56 50 56 54 47 40 47 48 42 39 46 52 68 75 76 74 70 74 68 62 59 60 59 49 46 47 47 43 40 40 35 37 34 29 30 33 30 31 35 32 33 32 35
44 46 44 47 41 40 47 49 46 45 47 54 64 79 84 77 76 75 76 73 66 64 62 64 59 51 53 51 49 43 40 37 37 35 34 34 33 37 37 36 41 41 41 39
35 33 37 37 40 42 44 44 48 51 53 63 76 83 90 82 84 85 73 71 75 68 67 63 67 57 57 48 49 46 44 42 39 42 43 39 37 41 40 44 42 43 44 47
32 34 36 31 38 39 40 44 52 55 58 69 82 86 90 83 80 79 77 76 71 74 70 64 68 66 60 58 55 54 50 48 48 42 47 48 48 44 43 42 41 41 45 51
32 33 28 34 35 37 40 44 53 59 62 69 81 87 91 90 83 80 84 78 72 70 70 69 65 66 69 66 61 57 52 48 50 46 49 46 53 56 58 54 54 52 53 55
31 30 32 34 36 38 39 49 55 57 63 67 79 88 92 90 88 81 82 86 80 79 73 68 66 64 63 64 64 60 55 56 60 60 57 61 62 63 63 56 53 53 61 59
29 31 31 32 34 35 42 48 56 59 61 67 79 86 94 93 86 81 83 79 77 74 74 72 67 62 65 67 65 64 59 60 66 66 65 64 64 62 58 56 58 56 56 68
23 26 29 32 35 36 40 46 53 56 57 63 72 88 93 95 91 87 81 81 81 76 73 68 68 70 71 70 70 68 67 67 68 67 66 65 64 63 63 65 64 60 62 65
19 22 26 29 31 35 41 46 51 55 55 58 63 79 90 99 99 92 85 82 82 82 79 75 71 70 72 69 70 71 72 70 69 71 67 66 68 71 69 67 68 68 67 70
18 20 21 23 30 33 38 43 49 53 54 53 58 69 81 89 95 96 96 91 89 83 73 73 76 74 73 72 74 76 78 75 78 78 74 70 72 71 72 72 70 79 75 78
26 27 27 27 30 34 36 41 45 48 52 52 53 57 68 78 82 87 92 98 96 93 91 85 80 78 77 78 78 78 77 77 74 70 71 75 76 78 78 78 78 83 82 80
22 22 24 25 29 31 37 42 44 46 47 50 53 57 59 65 74 80 84 90 91 93 91 88 84 81 77 78 79 81 75 72 74 77 77 77 78 82 84 85 86 85 91 89
23 23 24 27 29 33 37 40 42 44 46 48 51 56 60 61 63 69 74 80 86 93 94 92 91 90 89 87 83 76 75 78 80 83 85 87 89 91 91 88 90 96 93 93
22 23 23 26 29 32 33 35 39 42 45 47 50 54 56 60 62 63 67 73 74 76 77 78 80 79 79 79 78 78 79 81 84 85 87 89 90 91 93 95 95 93 98 103
23 23 24 26 29 32 34 36 39 42 44 47 49 51 54 57 61 63 62 63 65 69 73 75 76 78 78 79 81 82 84 87 90 91 92 92 93 94 96 99 101 97 92 89
25 27 27 28 30 31 34 37 39 41 42 45 47 50 53 56 58 60 61 62 63 66 68 71 75 79 81 85 87 88 92 93 92 93 92 93 92 90 88 86 86 85 85 83
27 28 30 32 32 33 34 35 38 39 41 43 45 46 48 50 52 55 57 58 60 63 64 67 69 71 74 76 78 82 82 84 86 87 85 85 84 83 82 81 79 79 79 79
33 33 33 34 35 38 39 40 41 41 42 43 44 46 48 50 50 52 53 54 56 57 59 62 63 64 66 68 69 70 72 75 76 78 80 81 80 80 79 77 77 81 83 84
34 35 35 35 36 39 40 40 42 44 46 47 48 48 49 49 50 50 51 53 54 55 57 60 60 62 62 63 66 67 67 68 69 70 71 73 74 76 77 78 80 82 83 86
30 31 33 34 37 37 38 39 41 44 46 47 49 51 52 52 52 52 53 54 55 55 55 56 58 58 60 61 62 64 65 67 68 69 71 73 74 75 77 78 80 84 87 89
27 33 33 34 35 37 39 39 41 44 46 47 48 49 52 54 54 55 55 54 53 53 54 56 57 58 59 59 59 60 61 63 65 68 71 73 74 75 76 78 81 83 86 88
22 25 26 30 34 37 39 42 42 42 43 45 46 48 49 50 52 53 53 54 54 54 54 54 55 55 56 58 58 58 59 61 62 64 65 66 67 68 69 71 73 75 78 80
27 26 27 30 31 33 34 35 37 39 38 38 38 38 40 41 44 48 49 49 50 50 51 51 52 53 53 54 55 56 56 57 58 59 60 61 63 65 67 70 72 74 76 77
23 24 25 27 30 31 34 35 36 34 35 35 35 37 39 41 40 40 42 44 45 45 46 47 47 47 48 48 49 51 54 56 58 59 60 61 63 66 68 69 70 72 73 74

GFSNGP_250_spd_117.txt.gz
Wind_Speed
65 68 72 74 72 71 71 72 72 67 62 65 67 62 60 60 58 58 63 60 53 52 48 48 45 58 62 60 56 56 52 49 40 36 33 28 24 21 15 14 15 10 34 45
58 62 66 65 63 66 68 69 62 58 50 60 61 57 59 60 56 58 60 48 49 52 44 48 46 63 63 61 59 53 53 51 43 38 36 33 29 26 22 18 18 16 18 42
54 57 57 53 63 62 62 64 63 57 52 58 54 55 59 58 52 58 57 48 51 51 45 46 57 66 61 62 61 55 53 53 47 41 39 40 36 31 26 23 22 19 22 22
52 52 49 54 59 61 60 60 58 52 52 49 48 49 58 57 55 58 53 53 57 49 47 52 65 66 60 63 62 58 55 54 50 46 42 40 41 35 29 28 28 27 29 26
47 47 46 49 54 51 47 50 49 47 47 47 50 58 66 64 63 63 58 62 61 52 51 64 67 66 63 64 67 61 61 58 54 51 48 42 42 41 35 33 35 32 34 34
38 39 39 40 43 44 47 48 50 48 47 51 57 61 66 59 62 63 65 69 61 55 59 71 69 67 64 65 67 67 59 57 55 54 52 50 46 44 43 41 41 39 36 39
29 30 33 37 35 41 46 47 48 46 48 49 53 58 59 51 50 60 66 66 61 57 64 76 71 62 58 62 61 49 50 57 56 57 56 55 52 50 47 46 47 45 43 39
22 24 24 27 32 37 38 39 42 43 42 43 46 48 49 50 50 56 61 64 61 59 67 76 75 64 65 64 65 40 41 46 50 58 55 58 58 50 48 46 49 50 49 45
18 18 20 23 29 31 33 31 30 31 27 35 38 41 47 49 54 56 58 59 62 63 68 72 77 70 63 64 63 58 51 43 51 55 60 56 54 51 48 47 49 51 52 51
11 12 16 18 22 25 26 27 24 25 30 33 34 40 45 48 54 56 55 60 65 68 73 74 72 71 69 72 69 65 54 41 54 62 58 57 54 56 55 53 56 58 58 56
13 15 17 18 19 20 20 17 20 24 28 30 34 39 45 48 53 54 60 63 70 72 70 77 75 75 73 75 72 73 64 59 44 46 61 62 61 58 58 59 62 62 60 60
11 11 13 14 16 16 18 20 22 25 27 29 34 40 45 47 50 52 59 65 73 76 72 67 75 77 76 77 77 79 74 73 67 69 60 65 64 62 61 62 63 62 62 60
11 11 11 11 12 14 15 16 18 20 22 24 29 38 43 46 46 51 55 65 74 76 78 75 76 74 75 76 78 80 85 79 71 67 72 68 68 68 55 55 61 66 68 69
17 16 15 16 14 13 13 15 16 17 20 22 27 34 41 45 44 49 59 69 73 75 80 79 81 79 79 79 76 75 78 80 77 77 80 83 80 79 73 74 75 75 71 72
19 19 16 15 14 14 15 16 16 18 20 22 25 33 40 44 44 52 59 69 72 76 80 78 82 83 81 83 79 78 79 80 84 81 83 84 83 79 77 78 76 75 77 79
16 16 17 17 17 17 18 19 18 20 20 22 23 27 35 41 43 50 58 64 71 78 75 76 81 82 83 82 81 81 84 82 83 80 84 85 87 86 87 86 83 81 82 86
14 16 17 18 18 18 19 19 20 21 22 23 24 26 30 34 40 47 59 62 69 69 74 78 80 76 78 80 80 82 79 83 82 85 84 84 86 89 88 86 89 88 90 95
18 18 19 19 20 20 20 20 21 23 24 25 26 27 29 32 36 43 53 64 67 72 76 76 76 79 81 81 80 81 84 80 81 84 85 86 89 91 93 92 95 96 90 90
18 19 19 20 22 22 23 23 23 24 26 27 29 31 31 34 36 39 46 53 62 66 75 77 80 78 77 82 84 85 84 89 91 91 90 93 95 98 98 96 90 94 91 93
18 20 21 22 23 24 25 26 26 25 26 27 28 30 32 34 36 39 43 48 53 60 64 70 80 83 84 88 88 85 83 81 84 87 90 94 98 96 95 98 100 102 103 107
20 21 22 23 24 25 26 27 29 30 29 30 31 31 31 33 35 38 41 45 50 55 59 64 71 79 85 86 87 95 99 99 97 96 98 101 102 102 103 104 107 111 112 110
19 21 22 23 24 25 26 27 28 30 32 34 33 35 35 36 36 37 39 43 46 50 53 57 61 65 70 78 89 95 99 99 99 100 104 105 107 109 110 107 105 105 103 102
23 25 27 29 30 31 32 33 33 33 34 34 36 37 38 39 40 40 40 42 44 47 49 52 54 57 60 64 68 73 76 79 82 83 86 88 89 90 92 93 94 94 94 94
27 28 30 31 31 31 32 34 35 36 39 40 40 40 40 42 43 44 45 46 47 47 49 50 52 53 55 57 59 62 66 69 71 73 75 77 78 80 81 82 82 83 84 86
19 22 25 27 30 33 34 33 32 34 34 35 37 40 41 42 43 44 46 47 49 50 51 52 53 53 54 55 57 58 60 63 65 67 69 71 73 74 75 77 79 80 81 82
17 18 19 21 22 24 26 28 30 31 33 32 32 33 34 35 36 37 41 44 47 49 51 52 54 55 56 56 57 58 60 61 63 64 66 67 69 70 71 72 73 73 75 75
14 15 17 18 19 21 22 22 23 25 27 29 31 32 34 35 35 37 37 38 39 41 42 44 47 50 53 55 55 56 56 57 58 59 60 61 62 63 64 66 67 67 69 70

GFSNGP_250_spd_120.txt.gz
Wind_Speed
60 66 68 75 79 75 73 73 71 75 74 72 72 65 62 61 59 64 68 65 63 62 60 59 55 54 56 52 44 52 62 64 60 53 48 42 36 31 27 24 22 22 23 27
52 60 64 68 70 69 69 70 69 69 67 71 65 66 64 61 60 61 62 62 62 59 59 58 55 54 55 47 47 56 64 67 63 56 49 46 42 35 32 29 23 20 19 17
48 52 56 56 64 68 68 68 63 63 64 63 62 63 63 62 63 62 60 60 60 61 58 54 53 53 49 44 49 60 68 67 61 57 52 48 45 39 36 32 29 24 23 20
44 46 51 57 58 57 56 58 57 53 57 58 60 61 61 63 64 63 62 60 59 61 57 57 54 50 44 49 52 64 70 65 60 58 54 51 46 43 39 36 31 27 23 25
38 41 44 46 48 49 49 53 53 47 51 55 61 63 60 61 66 64 61 62 63 62 60 59 55 46 48 52 60 71 68 61 60 58 57 54 49 42 41 38 35 31 30 30
34 35 37 39 44 47 46 50 44 48 52 56 58 61 63 66 65 66 64 64 66 65 64 57 53 49 53 56 69 74 68 60 59 60 60 57 50 43 39 40 42 39 37 35
25 27 29 30 35 40 42 45 45 46 49 51 55 55 58 62 63 63 64 65 66 65 66 60 49 51 56 62 62 68 68 63 61 60 59 60 54 49 44 46 46 47 45 42
20 21 25 29 32 35 38 41 41 44 44 46 44 48 49 49 53 58 62 65 63 65 62 61 49 53 62 78 68 71 68 66 64 63 61 60 57 56 53 51 51 50 50 49
17 18 21 22 25 29 34 35 37 35 36 32 31 41 41 43 47 49 51 56 61 59 61 54 50 56 70 73 68 64 65 69 66 60 58 59 60 58 55 55 55 55 55 53
15 17 18 19 19 20 23 25 28 30 28 32 37 39 39 41 43 44 46 48 51 56 57 54 53 62 79 81 78 64 61 62 62 57 58 56 60 58 59 56 58 60 57 56
10 13 15 16 17 18 16 18 23 26 28 31 32 34 36 39 41 43 44 44 44 46 49 51 56 71 81 77 79 67 54 59 57 48 48 51 51 55 59 60 57 58 59 57
10 7 8 11 12 14 17 19 20 20 23 26 28 30 34 38 40 43 44 43 43 46 48 53 62 81 83 79 75 74 69 65 66 60 53 52 55 53 59 63 64 63 67 66
14 13 13 12 14 14 14 14 17 17 20 23 26 29 33 38 39 42 42 45 47 46 48 59 70 86 84 76 76 70 70 66 66 61 55 55 51 54 62 70 69 70 65 64
16 14 13 14 14 13 14 14 14 16 18 21 22 25 31 36 38 40 42 44 45 47 53 63 76 87 86 79 77 75 75 67 59 66 61 59 59 52 57 58 55 51 54 61
19 19 17 14 14 15 15 14 15 17 17 18 20 23 28 33 36 38 39 40 45 50 53 64 78 84 84 84 82 78 81 83 76 73 73 74 68 67 65 64 65 67 62 64
16 16 15 14 14 15 14 14 14 15 16 17 19 22 25 29 33 35 37 36 43 48 52 64 77 84 83 83 86 85 85 82 86 86 78 80 81 86 82 77 76 74 77 79
13 14 14 14 14 14 14 14 14 15 16 17 19 21 24 27 29 32 36 38 43 50 53 62 76 82 86 86 87 91 89 90 93 94 87 87 88 88 88 84 86 89 90 92
12 12 13 14 14 14 15 15 14 15 16 17 18 20 24 27 31 33 34 37 41 49 52 61 70 79 81 85 91 91 91 93 93 93 92 93 95 95 96 96 94 97 99 98
14 14 14 15 16 17 18 19 19 19 19 19 21 23 24 27 30 32 36 38 41 45 53 59 66 75 79 82 83 87 90 92 94 96 95 96 95 95 96 98 98 99 98 98
16 17 17 18 19 20 21 21 23 22 22 23 24 26 27 28 30 33 36 38 44 45 51 56 60 66 76 82 83 92 94 96 97 97 99 99 100 100 101 101 101 102 105 106
15 15 16 18 19 20 22 23 24 25 26 25 26 27 29 31 33 34 36 39 41 45 47 54 57 63 69 72 76 85 87 93 98 100 102 103 104 109 106 105 101 103 100 101
20 22 23 25 26 27 28 28 28 29 28 29 29 29 30 32 34 36 38 40 42 45 47 50 53 59 63 70 75 79 81 86 87 88 89 90 93 95 97 99 98 100 103 102
25 26 28 29 29 29 30 30 31 32 32 32 32 32 33 34 35 37 39 40 42 44 47 49 52 55 59 63 68 73 76 83 87 89 91 94 95 96 94 95 98 99 101 105
27 28 27 28 29 29 28 28 29 31 32 32 33 34 35 36 37 39 40 42 43 44 46 48 50 52 56 59 62 65 68 73 79 82 87 91 95 96 96 97 100 104 104 105
26 23 21 21 22 24 25 24 23 24 26 27 28 30 32 34 36 39 40 41 42 43 45 47 49 51 53 56 58 61 63 66 68 70 73 75 78 80 81 83 83 85 88 90
21 20 20 19 18 19 22 22 22 23 24 25 25 26 27 29 31 33 35 38 41 43 45 46 47 50 53 55 56 58 60 62 64 66 68 70 73 74 76 77 77 78 79 79
18 18 16 16 17 18 19 19 20 22 23 24 25 25 26 27 28 29 31 34 36 38 39 41 43 46 48 50 51 54 56 58 60 62 64 66 67 68 69 70 71 72 74 75

GFSNGP_250_spd_123.txt.gz
Wind_Speed
42 51 58 57 63 66 68 70 73 76 78 79 78 72 70 74 76 77 79 79 77 73 68 74 70 70 72 72 69 63 57 58 56 44 60 58 56 53 50 43 38 37 36 34
41 47 52 53 59 65 62 69 71 74 72 73 77 70 59 66 71 77 79 73 67 67 65 69 75 75 73 72 70 65 63 60 54 50 64 61 59 55 50 45 39 37 37 33
42 43 46 47 53 61 64 65 66 70 69 71 66 56 57 58 65 67 67 65 66 64 64 66 70 72 69 70 70 66 61 59 49 54 69 65 62 57 50 45 41 38 38 34
34 39 44 47 51 56 56 54 57 59 61 62 60 49 58 65 62 63 63 64 61 59 61 61 61 64 63 62 61 60 60 59 48 57 73 66 63 58 51 47 44 42 39 34
28 32 38 41 46 49 52 55 54 46 50 50 50 59 70 62 64 63 59 60 61 59 59 60 62 63 62 61 63 60 60 51 52 59 73 64 63 61 55 50 47 44 39 37
24 25 31 35 39 43 45 49 46 44 48 53 56 60 66 68 65 66 62 57 59 59 61 62 61 61 61 62 60 58 49 48 54 61 72 66 64 62 55 53 50 47 42 39
20 21 24 29 33 37 41 44 44 49 53 54 57 57 63 67 68 68 66 62 62 61 62 64 64 63 64 60 53 46 46 50 55 66 69 66 65 63 56 51 51 49 45 42
18 20 22 25 30 33 37 39 43 46 50 52 55 55 57 59 60 57 56 57 60 61 61 63 64 62 60 55 48 45 49 51 59 66 67 66 65 62 60 54 50 49 46 46
16 17 20 22 27 30 33 35 38 40 43 47 48 44 45 50 53 52 52 53 54 58 59 56 54 56 53 45 44 50 51 54 51 57 66 69 67 66 57 62 59 56 52 48
12 14 17 18 21 24 26 25 28 30 33 36 37 39 44 44 45 45 46 47 47 50 53 52 50 47 47 43 50 56 55 64 59 66 65 66 66 64 67 62 59 57 56 54
11 10 13 15 17 19 19 23 27 31 33 34 38 40 39 38 39 42 41 41 43 45 46 46 42 43 39 48 57 65 69 65 72 60 65 61 62 64 61 61 62 63 60 58
15 14 12 15 18 20 21 22 24 27 28 30 32 32 33 34 35 37 37 38 39 40 39 42 43 41 42 54 60 68 68 66 68 58 56 62 63 64 62 61 60 60 62 58
15 16 15 13 13 17 18 19 19 19 22 24 27 27 28 30 33 35 35 36 37 38 39 40 42 46 49 55 68 81 85 77 69 66 68 66 68 64 64 60 58 61 63 61
14 15 16 17 16 15 17 18 18 20 21 22 22 22 27 28 29 32 33 34 35 37 39 40 43 50 56 60 80 83 80 81 82 72 65 56 52 61 59 57 59 60 62 64
15 15 15 15 15 16 18 19 20 20 20 20 19 19 23 26 27 29 31 33 33 36 41 44 49 54 60 66 87 87 80 75 68 66 68 61 61 65 68 65 66 68 66 65
16 14 14 13 12 13 14 15 15 17 18 18 18 18 21 24 26 28 30 33 35 37 38 41 48 56 61 69 86 90 85 77 74 70 70 73 73 69 71 71 74 71 73 75
11 13 14 14 14 14 15 15 15 16 17 18 18 18 20 23 25 28 31 33 33 36 40 45 51 59 66 74 90 94 90 87 77 76 75 76 78 80 79 78 78 77 77 73
11 12 14 15 16 17 17 17 16 17 18 18 18 19 20 23 25 28 31 35 37 39 42 47 51 60 67 76 90 97 94 88 89 91 85 79 78 79 79 83 85 83 80 78
16 17 16 16 17 17 18 18 18 18 18 20 21 22 23 24 27 28 32 36 38 41 44 47 51 60 67 75 93 97 96 94 92 93 91 90 88 86 85 84 84 86 85 88
17 17 17 17 19 20 21 22 23 23 22 23 24 24 26 27 28 30 32 36 41 44 45 48 52 58 66 76 90 99 101 97 94 97 97 99 97 94 91 93 91 92 92 96
19 21 21 22 24 26 26 27 26 26 26 27 27 28 29 30 32 33 34 36 39 44 46 47 50 56 62 72 84 93 103 104 101 102 101 105 106 102 99 103 99 99 99 102
23 24 26 27 27 28 28 27 26 26 27 27 27 29 31 33 35 37 38 39 41 42 45 48 50 53 60 65 77 89 94 103 109 106 108 110 111 111 112 111 111 109 111 110
26 27 28 28 28 27 27 28 29 30 31 30 30 29 29 32 35 37 40 41 43 44 45 47 49 52 56 63 68 73 87 91 101 108 111 111 112 115 116 117 119 122 121 119
30 29 29 28 28 28 28 28 28 28 29 29 30 32 32 32 32 33 37 41 42 44 47 48 49 51 53 57 62 69 75 80 88 96 100 105 109 110 113 115 116 119 121 120
29 28 27 26 27 27 25 25 25 25 25 25 27 29 29 30 32 33 34 35 38 42 45 47 49 52 55 57 60 63 67 73 78 81 84 90 95 99 102 104 108 112 114 115
30 31 29 27 27 27 26 26 27 26 26 26 25 25 26 28 30 31 33 35 38 40 41 44 47 50 53 55 58 61 65 68 72 75 79 83 87 91 93 95 97 99 101 103
34 32 31 32 32 27 25 25 24 24 23 24 25 26 27 28 28 30 32 35 37 39 42 45 46 48 50 52 55 57 59 62 66 69 72 75 78 81 84 86 89 91 92 93

GFSNGP_250_spd_126.txt.gz
Wind_Speed
41 43 42 45 45 49 56 55 51 58 57 63 66 72 76 68 59 63 70 73 74 76 77 78 75 74 70 63 63 66 65 66 63 61 55 58 47 42 51 52 54 51 49 40
36 40 37 39 41 43 49 50 52 54 58 67 73 77 70 47 35 54 63 69 69 65 70 72 66 68 66 64 64 64 63 64 63 63 62 57 52 43 51 55 55 53 49 44
32 34 36 38 42 42 49 52 55 53 57 66 74 69 55 39 48 40 54 59 71 72 70 69 66 71 67 69 66 67 70 71 70 66 65 63 56 45 51 60 58 55 53 47
28 32 33 34 34 38 47 46 49 51 56 67 55 55 56 42 40 39 44 58 64 73 74 74 74 76 72 68 66 70 71 71 72 71 70 66 59 47 53 63 63 56 53 49
24 27 27 29 32 34 41 47 43 46 47 48 51 60 42 45 51 53 52 59 62 64 69 75 76 77 74 72 71 72 76 73 73 72 68 63 56 46 56 67 65 58 56 50
23 24 26 27 30 31 36 41 44 46 44 44 48 51 47 57 59 65 64 59 60 60 58 61 65 70 72 72 68 69 70 76 76 72 65 63 50 51 56 69 67 59 56 52
21 21 23 25 27 30 35 39 40 37 36 41 47 51 52 58 61 63 62 62 59 57 57 57 61 63 64 63 65 65 64 63 63 61 61 54 46 52 58 70 68 61 58 54
16 16 18 23 26 28 30 35 37 38 40 42 47 52 53 56 58 57 57 55 54 53 55 58 59 62 64 63 63 60 60 61 60 61 53 44 48 52 62 69 68 62 61 56
14 15 19 20 22 26 29 30 33 35 37 40 44 47 45 47 48 50 51 50 52 53 52 53 56 58 61 64 65 63 62 63 63 50 42 38 46 51 65 66 66 62 62 58
12 13 13 15 17 19 22 26 27 30 35 38 41 43 43 43 45 45 43 42 43 45 45 45 50 54 55 56 58 60 61 59 51 48 52 45 49 57 66 62 64 64 62 57
11 12 13 14 15 15 18 19 21 25 29 34 37 40 42 45 44 41 37 37 39 40 41 43 45 48 49 49 50 51 53 51 49 52 57 50 53 59 62 63 64 66 65 65
13 12 13 14 15 17 20 23 25 28 30 34 36 37 37 36 36 36 35 36 36 36 37 39 39 41 42 43 42 43 46 50 53 53 52 53 59 60 62 65 65 65 67 65
12 12 14 13 13 16 17 20 20 21 21 23 28 29 28 29 30 32 33 34 32 34 35 35 33 31 34 39 41 46 51 55 59 62 61 63 61 60 63 64 64 64 63 60
12 13 13 14 14 13 13 14 15 16 19 20 21 22 23 26 25 26 28 29 29 31 31 31 31 33 37 40 43 50 53 57 61 65 64 63 67 63 62 65 62 63 63 61
12 12 12 12 12 12 13 14 15 16 17 19 19 20 21 22 23 23 25 25 27 28 30 32 34 36 37 41 45 52 56 62 69 63 56 57 57 60 52 54 60 61 61 62
12 13 13 15 15 13 15 15 16 18 19 20 20 20 20 20 20 21 23 24 26 28 31 34 38 38 41 46 49 54 62 72 79 72 65 67 66 65 66 61 60 62 62 64
11 11 13 13 12 12 13 16 16 17 18 19 20 19 19 20 20 20 21 24 27 30 33 36 39 41 46 53 55 61 74 78 80 81 78 77 71 71 70 73 74 70 67 71
13 12 13 15 16 17 18 17 18 18 19 19 19 19 19 20 20 21 22 24 29 33 36 39 41 43 49 57 62 65 81 82 82 82 83 84 82 80 78 71 66 68 73 74
16 18 18 18 18 18 18 19 20 21 22 22 22 22 21 21 22 22 22 25 29 33 37 41 44 46 51 60 68 71 84 87 87 86 85 84 79 74 74 75 77 71 72 74
20 20 19 19 20 22 23 24 24 25 25 25 25 25 24 24 24 25 25 26 30 35 39 42 46 50 53 60 68 71 85 92 93 94 93 89 86 79 78 82 83 83 80 81
20 21 23 24 25 26 26 26 26 24 23 24 25 26 27 27 28 28 29 29 31 35 39 43 46 50 55 60 66 73 88 93 95 98 100 97 93 89 89 89 89 89 94 92
23 25 26 26 27 27 27 26 27 27 28 27 27 28 28 29 30 30 30 32 34 36 39 43 46 49 53 58 64 72 78 97 99 100 103 104 98 95 96 95 96 96 99 100
24 26 27 26 27 27 27 27 28 28 30 30 30 30 31 31 31 32 32 33 34 37 39 42 46 48 52 55 63 69 77 85 96 105 106 110 108 106 104 102 105 104 108 109
27 29 29 28 29 30 29 30 30 30 30 31 31 31 31 32 32 34 33 34 35 36 38 41 44 48 52 55 56 63 70 78 85 91 105 113 116 115 114 113 115 115 113 112
31 31 30 30 30 29 27 28 29 27 28 27 26 26 27 30 32 33 34 36 36 37 38 40 42 45 49 53 58 61 63 70 78 84 88 100 115 121 121 121 120 118 120 124
32 32 32 31 32 32 31 31 31 30 31 30 29 28 28 28 27 29 32 34 36 39 40 42 44 46 48 50 53 57 61 65 69 75 81 88 95 107 114 117 121 128 128 126
35 34 34 34 36 36 35 34 34 34 33 30 28 28 27 26 26 28 29 32 35 37 39 41 45 48 50 52 53 55 57 60 64 68 72 77 82 87 94 100 107 116 120 121

GFSNGP_250_spd_129.txt.gz
Wind_Speed
45 44 38 33 36 36 34 37 39 46 45 48 56 56 64 72 71 69 53 51 58 60 61 64 67 70 71 72 70 70 68 66 65 64 61 57 53 50 51 49 44 42 41 47
41 40 35 31 30 32 32 36 46 47 43 47 54 54 63 68 68 64 63 50 50 54 63 63 60 65 68 67 67 67 64 61 62 61 58 57 55 55 58 51 45 42 40 51
37 38 35 28 29 27 30 37 42 45 43 46 56 57 62 64 60 62 56 46 40 49 56 60 61 63 65 66 68 69 68 64 62 60 56 56 58 57 60 58 45 42 41 51
30 31 29 23 27 27 32 35 39 41 40 47 52 53 56 55 54 51 54 52 40 39 45 57 61 63 66 70 71 72 72 72 66 64 62 62 58 57 56 53 46 46 43 46
27 27 27 24 25 27 30 33 37 41 41 47 51 49 53 51 48 41 40 36 30 37 42 53 62 62 63 67 67 69 71 72 68 65 66 66 64 61 58 57 55 53 46 46
25 25 25 22 21 24 28 30 35 36 40 44 46 43 44 43 41 39 40 42 37 36 41 50 61 70 70 69 68 66 65 66 65 70 67 64 63 67 66 65 62 57 49 49
21 20 21 19 20 22 24 26 28 33 40 42 37 38 39 44 45 45 46 45 47 49 52 59 65 68 74 73 74 73 73 72 71 68 72 70 71 68 67 65 65 54 49 51
18 20 20 19 20 22 22 25 29 32 36 36 32 36 41 42 45 47 49 52 54 55 58 60 62 65 67 73 80 80 80 80 78 78 78 73 72 74 70 68 64 51 49 53
16 17 17 18 17 16 19 21 24 28 31 31 34 38 41 44 45 46 47 47 47 47 48 52 58 62 65 68 71 76 81 81 79 79 78 73 67 68 74 65 54 49 52 57
13 13 14 15 13 13 14 16 19 22 27 28 30 32 37 41 44 45 45 42 41 40 42 45 47 51 57 58 62 65 68 72 74 74 69 63 59 59 56 43 36 42 53 59
11 12 13 12 12 13 14 15 18 21 24 26 29 32 34 35 36 36 37 36 35 36 39 43 43 43 45 50 56 59 63 65 65 65 64 60 54 55 46 41 32 44 50 60
10 11 12 12 13 12 14 16 19 21 24 26 29 31 32 32 31 32 31 31 33 34 36 37 41 43 44 47 50 53 53 54 53 58 62 58 54 51 53 51 59 54 52 61
7 9 12 13 14 14 14 16 18 20 21 22 22 24 27 27 28 29 30 30 31 31 32 32 34 37 39 42 43 45 46 46 44 50 54 54 50 52 58 56 53 57 57 59
9 8 10 11 12 11 12 12 13 15 17 17 19 20 21 21 23 25 27 27 28 29 29 29 31 33 34 36 38 41 42 43 43 45 44 45 52 58 57 55 64 60 59 59
11 9 9 10 11 11 11 13 15 14 14 17 18 19 18 18 19 20 22 23 24 25 26 29 29 30 33 35 38 40 42 43 46 47 47 50 57 62 57 59 60 61 62 64
10 9 11 12 14 14 13 14 14 16 16 17 18 19 19 18 18 18 19 20 22 23 25 27 29 33 34 37 39 40 43 47 49 50 52 58 62 63 65 66 68 66 64 62
9 9 11 13 15 13 14 14 15 16 16 17 18 19 19 19 18 18 18 18 21 23 25 27 30 33 35 37 40 43 46 48 50 52 54 59 62 64 71 68 71 73 66 63
13 14 14 15 16 16 17 17 16 17 18 19 19 20 19 19 19 19 19 18 20 23 26 29 32 34 35 36 40 45 48 50 53 56 57 60 59 64 68 70 72 68 68 64
17 18 20 21 19 18 18 19 21 22 22 21 21 21 22 21 21 20 20 19 20 23 28 32 35 37 37 38 42 47 51 54 57 57 60 68 65 67 64 62 63 68 71 66
20 21 19 19 19 20 21 23 23 23 22 21 21 21 23 23 22 22 20 21 22 23 27 32 36 39 42 42 44 51 54 56 60 63 67 77 77 74 74 75 72 73 76 72
18 17 18 19 22 23 22 22 22 22 22 23 24 24 25 25 26 26 25 24 23 24 26 30 35 40 42 46 48 52 57 59 64 68 77 82 83 83 84 80 76 77 84 87
19 20 22 23 24 24 23 22 24 24 25 25 26 27 28 27 28 28 30 29 28 27 28 29 34 39 43 47 52 54 58 62 69 72 85 89 88 88 88 88 86 84 83 83
22 25 25 24 25 25 25 26 27 26 28 27 28 29 30 29 30 30 30 31 31 31 31 32 33 36 42 46 52 56 60 65 72 78 86 93 94 95 94 95 95 95 94 93
23 26 28 28 28 28 28 29 28 29 30 30 30 30 30 30 30 32 31 31 33 33 34 33 35 37 38 43 50 54 59 63 70 78 83 94 94 99 99 102 102 102 102 102
27 27 29 30 29 29 28 29 30 31 31 30 29 28 27 27 27 27 28 30 31 33 34 36 36 37 40 42 45 49 54 60 66 72 80 84 93 101 100 103 106 108 109 109
29 29 29 29 30 30 29 30 33 33 33 33 31 29 28 28 28 28 27 29 30 30 33 35 38 39 40 42 45 48 51 55 60 65 72 76 87 91 99 106 107 109 112 114
30 29 31 32 32 33 34 35 35 36 36 35 33 32 30 28 27 27 27 28 28 30 30 32 34 38 41 43 44 47 50 53 56 59 64 68 74 81 90 96 106 109 109 111